WD9GET Weather Reports


Display with metric or nautical units.
time (UTC)temp
F
wind
direction
speed
MPH
gust
MPH
rain 1hr
in
rain 24hr
in
rain mn
in
humidity
%
barometer
mb
20260502163317 69 286 4.0 9.0 0.00 0.93 0.00 61 1019.5
20260502163307 69 45 4.0 9.0 0.00 0.93 0.00 61 1019.5
20260502163207 69 41 3.0 9.0 0.00 0.93 0.00 62 1019.5
20260502163107 69 333 3.0 9.0 0.00 0.93 0.00 63 1019.6
20260502163006 69 23 3.0 9.0 0.00 0.93 0.00 63 1019.6
20260502162906 69 75 3.0 9.0 0.00 0.93 0.00 64 1019.6
20260502162817 69 342 4.0 9.0 0.00 0.93 0.00 63 1019.6
20260502162806 69 42 3.0 9.0 0.00 0.93 0.00 63 1019.6
20260502162707 69 357 4.0 9.0 0.00 0.93 0.00 65 1019.5
20260502162604 69 14 4.0 9.0 0.00 0.93 0.00 64 1019.5
20260502162504 69 8 4.0 9.0 0.00 0.93 0.00 66 1019.5
20260502162401 69 300 4.0 9.0 0.00 0.93 0.00 66 1019.5
20260502162315 69 28 4.0 9.0 0.00 0.93 0.00 67 1019.5
20260502162300 69 16 4.0 9.0 0.00 0.93 0.00 67 1019.5
20260502162158 68 42 4.0 9.0 0.00 0.93 0.00 66 1019.5
20260502162058 68 341 4.0 9.0 0.00 0.93 0.00 66 1019.5
20260502161952 69 14 4.0 9.0 0.00 0.93 0.00 67 1019.4
20260502161850 69 27 3.0 9.0 0.00 0.93 0.00 66 1019.5
20260502161814 69 302 3.0 9.0 0.00 0.93 0.00 66 1019.5
20260502161750 69 4 3.0 9.0 0.00 0.93 0.00 65 1019.4
20260502161650 69 46 3.0 9.0 0.00 0.93 0.00 66 1019.5
20260502161550 69 7 3.0 10.0 0.00 0.93 0.00 65 1019.4
20260502161451 69 6 3.0 10.0 0.00 0.93 0.00 65 1019.4
20260502161350 69 351 3.0 10.0 0.00 0.93 0.00 64 1019.4
20260502161314 69 217 3.0 10.0 0.00 0.93 0.00 64 1019.4
20260502161250 69 359 3.0 10.0 0.00 0.93 0.00 66 1019.3
20260502161150 69 30 3.0 13.0 0.00 0.93 0.00 65 1019.4
20260502161050 69 318 4.0 13.0 0.00 0.93 0.00 66 1019.4
20260502160950 69 3 3.0 13.0 0.00 0.93 0.00 68 1019.4
20260502160850 69 286 3.0 13.0 0.00 0.93 0.00 68 1019.4
20260502160814 69 21 3.0 13.0 0.00 0.93 0.00 68 1019.4
20260502160750 69 324 3.0 13.0 0.00 0.93 0.00 65 1019.3
20260502160649 69 351 3.0 13.0 0.00 0.93 0.00 67 1019.3
20260502160549 69 314 3.0 13.0 0.00 0.93 0.00 67 1019.3
20260502160536 68 327 3.0 13.0 0.00 0.93 0.00 68 1019.3
20260502160443 69 62 3.0 13.0 0.00 0.93 0.00 69 1019.3
20260502160417 68 336 3.0 13.0 0.00 0.93 0.00 68 1019.3
20260502160228 68 27 3.0 13.0 0.00 0.93 0.00 70 1019.4
20260502160130 68 115 3.0 9.0 0.00 0.93 0.00 70 1019.4
20260502152322 67 45 3.0 8.0 0.00 0.93 0.00 71 1019.2
20260502152306 67 5 3.0 8.0 0.00 0.93 0.00 71 1019.2
20260502152252 66 34 4.0 11.0 0.00 0.93 0.00 73 1019.2
20260502152222 67 1 4.0 8.0 0.00 0.93 0.00 71 1019.2
20260502152136 67 3 4.0 8.0 0.00 0.93 0.00 73 1019.1
20260502152017 66 32 4.0 8.0 0.00 0.93 0.00 74 1019.2
20260502151917 66 25 4.0 8.0 0.00 0.93 0.00 73 1019.2
20260502151912 66 34 4.0 11.0 0.00 0.93 0.00 73 1019.2
20260502151707 66 20 4.0 11.0 0.00 0.93 0.00 73 1019.2
20260502151607 66 1 4.0 11.0 0.00 0.93 0.00 73 1019.2
20260502151507 66 39 4.0 11.0 0.00 0.93 0.00 74 1019.2
20260502151401 66 19 4.0 11.0 0.00 0.93 0.00 74 1019.2
20260502151303 66 39 3.0 11.0 0.00 0.93 0.00 73 1019.2
20260502151202 66 43 3.0 11.0 0.00 0.93 0.00 73 1019.2
20260502151102 66 345 3.0 11.0 0.00 0.93 0.00 73 1019.3
20260502151001 66 121 3.0 11.0 0.00 0.93 0.00 73 1019.3
20260502150859 66 40 3.0 11.0 0.00 0.93 0.00 73 1019.2
20260502150801 66 51 3.0 8.0 0.00 0.93 0.00 73 1019.3
20260502150755 66 49 3.0 8.0 0.00 0.93 0.00 73 1019.3
20260502150658 66 288 3.0 11.0 0.00 0.93 0.00 73 1019.4
20260502150558 66 309 3.0 11.0 0.00 0.93 0.00 74 1019.4
20260502150459 66 294 4.0 12.0 0.00 0.93 0.00 73 1019.3
20260502150359 65 23 4.0 12.0 0.00 0.93 0.00 74 1019.3
20260502150300 65 4 4.0 12.0 0.00 0.93 0.00 74 1019.3
20260502150254 65 9 4.0 12.0 0.00 0.93 0.00 74 1019.3
20260502150200 65 2 4.0 12.0 0.00 0.93 0.00 75 1019.3
20260502140124 62 31 2.0 4.0 0.00 0.96 0.00 81 1019.0
20260502130652 57 10 2.0 4.0 0.00 0.96 0.00 89 1018.3
20260502130613 57 19 2.0 4.0 0.00 0.96 0.00 90 1018.3
20260502130452 57 52 2.0 4.0 0.00 0.96 0.00 90 1018.3
20260502130352 57 359 2.0 4.0 0.00 0.96 0.00 90 1018.2
20260502130252 56 6 2.0 4.0 0.00 0.96 0.00 90 1018.2
20260502130152 56 7 2.0 4.0 0.00 0.96 0.00 90 1018.2
20260502123809 55 3 2.0 3.0 0.00 0.96 0.00 92 1017.8
20260502123709 55 40 2.0 4.0 0.00 0.96 0.00 92 1017.8
20260502123609 55 43 2.0 4.0 0.00 0.96 0.00 92 1017.8
20260502123545 55 18 2.0 6.0 0.00 0.96 0.00 92 1017.8
20260502123454 55 6 2.0 4.0 0.00 0.96 0.00 92 1017.8
20260502123428 55 309 2.0 6.0 0.00 0.96 0.00 92 1017.8
20260502123255 55 29 2.0 6.0 0.00 0.96 0.00 92 1017.8
20260502123154 55 14 2.0 6.0 0.00 0.96 0.00 92 1017.8
20260502123054 55 352 2.0 6.0 0.00 0.96 0.00 92 1017.8
20260502122954 55 35 2.0 6.0 0.00 0.96 0.00 92 1017.8
20260502122852 55 307 2.0 6.0 0.00 0.96 0.00 92 1017.7
20260502122812 55 19 2.0 6.0 0.00 0.96 0.00 92 1017.7
20260502122753 55 355 2.0 6.0 0.00 0.96 0.00 92 1017.7
20260502122653 55 359 2.0 6.0 0.00 0.96 0.00 93 1017.7
20260502122543 55 6 2.0 6.0 0.00 0.96 0.00 93 1017.7
20260502122440 54 10 2.0 6.0 0.00 0.96 0.00 93 1017.7
20260502122309 54 41 2.0 4.0 0.00 0.96 0.00 93 1017.7
20260502122225 54 19 2.0 4.0 0.00 0.96 0.00 93 1017.5
20260502122109 54 321 2.0 4.0 0.00 0.97 0.00 93 1017.5
20260502122010 54 34 2.0 4.0 0.00 0.97 0.00 93 1017.5
20260502121855 54 180 1.0 3.0 0.00 0.97 0.00 93 1017.5
20260502121809 54 38 1.0 3.0 0.00 0.97 0.00 93 1017.5
20260502121755 54 32 1.0 3.0 0.00 0.97 0.00 93 1017.5
20260502121655 54 4 1.0 2.0 0.00 0.97 0.00 93 1017.5
20260502121554 54 19 1.0 2.0 0.00 0.97 0.00 93 1017.5
20260502121453 54 358 1.0 4.0 0.00 0.98 0.00 93 1017.5
20260502121353 54 30 2.0 4.0 0.00 0.98 0.00 93 1017.5
20260502121308 54 18 2.0 4.0 0.00 0.98 0.00 93 1017.5
20260502121253 54 4 2.0 4.0 0.00 0.98 0.00 93 1017.5
20260502121154 54 310 2.0 4.0 0.00 0.98 0.00 93 1017.5
20260502121054 54 5 2.0 4.0 0.00 0.98 0.00 93 1017.4
20260502120940 54 18 2.0 4.0 0.00 0.98 0.00 93 1017.4
20260502120824 54 10 2.0 4.0 0.00 0.99 0.00 93 1017.4
20260502120809 54 7 2.0 4.0 0.00 0.99 0.00 93 1017.4
20260502120709 54 7 2.0 4.0 0.00 1.00 0.00 93 1017.4
20260502120610 53 355 2.0 4.0 0.00 1.00 0.00 93 1017.4
20260502120510 53 28 1.0 4.0 0.00 1.00 0.00 93 1017.4
20260502120410 53 9 1.0 4.0 0.00 1.00 0.00 93 1017.4
20260502120310 53 52 1.0 4.0 0.00 1.00 0.00 93 1017.4
20260502120252 53 121 1.0 4.0 0.00 1.00 0.00 93 1017.3
20260502120209 53 340 1.0 4.0 0.00 1.00 0.00 93 1017.3
20260502115853 53 293 1.0 4.0 0.00 1.00 0.00 93 1017.3
20260502115753 53 10 1.0 4.0 0.00 1.00 0.00 93 1017.2
20260502115653 53 25 2.0 4.0 0.00 1.00 0.00 93 1017.2
20260502115554 53 18 2.0 4.0 0.00 1.00 0.00 93 1017.2
20260502115454 53 10 2.0 4.0 0.00 1.00 0.00 93 1017.2
20260502115353 53 293 2.0 4.0 0.00 1.00 0.00 93 1017.2
20260502115254 53 19 2.0 4.0 0.00 1.00 0.00 93 1017.2
20260502115140 53 32 2.0 4.0 0.00 1.00 0.00 93 1017.1
20260502115025 53 21 2.0 4.0 0.00 1.00 0.00 93 1017.1
20260502114950 53 346 2.0 4.0 0.00 1.00 0.00 93 1017.1
20260502114925 53 10 2.0 4.0 0.00 1.00 0.00 93 1017.1
20260502114829 53 32 2.0 4.0 0.00 1.00 0.00 93 1017.1
20260502114710 53 311 2.0 4.0 0.00 1.00 0.00 93 1017.1
20260502114610 53 357 2.0 4.0 0.00 1.00 0.00 93 1017.1
20260502114510 53 345 2.0 4.0 0.00 1.00 0.00 93 1017.0
20260502114410 53 33 2.0 3.0 0.00 1.00 0.00 93 1016.9
20260502114240 53 28 2.0 3.0 0.00 1.00 0.00 93 1016.9
20260502114223 53 8 2.0 3.0 0.00 1.00 0.00 93 1016.9
20260502114140 53 359 1.0 3.0 0.00 1.00 0.00 93 1016.9
20260502114040 53 34 1.0 3.0 0.00 1.00 0.00 93 1016.9
20260502113940 53 8 1.0 3.0 0.00 1.00 0.00 93 1016.9
20260502113825 53 20 1.0 3.0 0.00 1.00 0.00 93 1016.9
20260502113725 53 2 1.0 2.0 0.00 1.00 0.00 92 1016.9
20260502113625 53 22 1.0 3.0 0.00 1.00 0.00 92 1016.9
20260502113525 53 347 1.0 3.0 0.00 1.00 0.00 92 1016.9
20260502113437 53 353 1.0 3.0 0.00 1.00 0.00 92 1016.8
20260502113425 53 30 1.0 3.0 0.00 1.00 0.00 92 1016.8
20260502113330 53 12 1.0 3.0 0.00 1.00 0.00 92 1016.8
20260502113314 53 24 1.0 3.0 0.00 1.00 0.00 92 1016.8
20260502113125 53 8 1.0 3.0 0.00 1.00 0.00 92 1016.8
20260502113025 53 45 1.0 3.0 0.00 1.00 0.00 92 1016.7
20260502112926 53 321 2.0 4.0 0.00 1.00 0.00 92 1016.7
20260502112825 53 27 2.0 4.0 0.00 1.00 0.00 92 1016.8
20260502112726 53 350 2.0 4.0 0.00 1.00 0.00 92 1016.8
20260502112709 53 332 2.0 4.0 0.00 1.00 0.00 92 1016.8
20260502112625 53 348 2.0 4.0 0.00 1.00 0.00 92 1016.8
20260502112525 53 301 2.0 4.0 0.00 1.00 0.00 92 1016.8
20260502112356 53 14 2.0 4.0 0.00 1.00 0.00 92 1016.8
20260502112256 53 22 2.0 4.0 0.00 1.00 0.00 91 1016.7
20260502112209 54 25 2.0 4.0 0.00 1.00 0.00 91 1016.7
20260502112156 54 23 2.0 4.0 0.00 1.00 0.00 91 1016.7
20260502112055 54 30 2.0 4.0 0.00 1.00 0.00 91 1016.7
20260502111941 54 53 2.0 4.0 0.00 1.00 0.00 91 1016.7
20260502111931 54 36 2.0 4.0 0.00 1.00 0.00 90 1016.6
20260502111840 54 310 1.0 4.0 0.00 1.00 0.00 91 1016.7
20260502111816 54 20 1.0 4.0 0.00 1.00 0.00 90 1016.6
20260502111640 54 14 1.0 3.0 0.00 1.00 0.00 90 1016.6
20260502111526 54 336 1.0 3.0 0.00 1.00 0.00 90 1016.6
20260502111425 54 23 1.0 2.0 0.00 1.00 0.00 90 1016.6
20260502111310 54 17 1.0 2.0 0.00 1.00 0.00 90 1016.6
20260502111211 54 323 1.0 2.0 0.00 1.00 0.00 90 1016.6
20260502111111 54 47 1.0 2.0 0.00 1.00 0.00 89 1016.6
20260502111011 54 24 1.0 2.0 0.00 1.00 0.00 89 1016.5
20260502110910 54 323 1.0 2.0 0.00 1.00 0.00 89 1016.5
20260502110756 54 38 1.0 2.0 0.00 1.00 0.00 89 1016.4
20260502110657 54 10 1.0 4.0 0.00 1.00 0.00 89 1016.4
20260502110554 54 347 2.0 4.0 0.00 1.00 0.00 89 1016.4
20260502110440 54 11 2.0 4.0 0.00 1.00 0.00 89 1016.4
20260502110326 54 359 2.0 4.0 0.00 1.00 0.00 89 1016.3
20260502110226 54 8 2.0 4.0 0.00 1.00 0.00 89 1016.3
20260502110126 54 44 2.0 4.0 0.00 1.00 0.00 89 1016.3
20260502110025 54 25 2.0 5.0 0.00 1.00 0.00 89 1016.3
20260502105910 54 24 2.0 5.0 0.00 1.00 0.00 89 1016.3
20260502105811 54 313 2.0 5.0 0.00 1.00 0.00 89 1016.3
20260502105711 54 20 2.0 5.0 0.00 1.00 0.00 89 1016.3
20260502105643 54 311 2.0 5.0 0.00 1.00 0.00 89 1016.2
20260502105602 54 327 2.0 5.0 0.00 1.00 0.00 89 1016.2
20260502105454 54 16 2.0 5.0 0.00 1.00 0.00 89 1016.2
20260502105355 54 17 2.0 5.0 0.00 1.00 0.00 89 1016.2
20260502105250 54 24 2.0 5.0 0.00 1.00 0.00 89 1016.2
20260502105140 54 336 2.0 5.0 0.00 1.00 0.00 89 1016.2
20260502105026 54 30 2.0 4.0 0.00 1.00 0.00 89 1016.2
20260502104911 54 8 2.0 5.0 0.00 1.00 0.00 89 1016.2
20260502104740 54 9 2.0 5.0 0.00 1.00 0.00 89 1016.2
20260502104626 54 4 2.0 5.0 0.00 1.00 0.00 89 1016.2
20260502104526 54 4 2.0 9.0 0.00 1.00 0.00 89 1016.2
20260502104425 54 359 2.0 9.0 0.00 1.00 0.00 90 1016.1
20260502104320 54 50 2.0 9.0 0.00 1.00 0.00 90 1016.2
20260502104220 54 55 2.0 9.0 0.00 1.00 0.00 90 1016.2
20260502104119 54 28 2.0 9.0 0.00 1.00 0.00 90 1016.2
20260502104113 54 15 2.0 9.0 0.00 1.00 0.00 90 1016.2
20260502104020 54 39 2.0 9.0 0.00 1.00 0.00 90 1016.2
20260502103908 54 303 2.0 9.0 0.00 1.00 0.00 90 1016.3
20260502103807 54 19 2.0 9.0 0.00 1.00 0.00 90 1016.3
20260502103656 54 29 2.0 9.0 0.00 1.00 0.00 90 1016.3
20260502103600 54 20 2.0 9.0 0.00 1.00 0.00 91 1016.2
20260502103555 54 8 2.0 9.0 0.00 1.00 0.00 91 1016.3
20260502103454 54 177 2.0 4.0 0.00 1.00 0.00 91 1016.3
20260502103354 54 20 2.0 4.0 0.00 1.00 0.00 91 1016.3
20260502103241 54 19 2.0 4.0 0.00 1.00 0.00 91 1016.2
20260502103141 53 9 2.0 4.0 0.00 1.00 0.00 91 1016.2
20260502103055 53 18 2.0 4.0 0.00 1.00 0.00 91 1016.2
20260502103041 53 302 2.0 4.0 0.00 1.00 0.00 91 1016.2
20260502102941 53 1 2.0 4.0 0.00 1.00 0.00 92 1016.2
20260502102841 53 18 1.0 4.0 0.00 1.00 0.00 92 1016.1
20260502102726 53 3 1.0 3.0 0.00 1.00 0.00 92 1016.1
20260502102627 53 25 1.0 3.0 0.00 1.00 0.00 92 1016.1
20260502102555 53 38 1.0 3.0 0.00 1.00 0.00 92 1016.1
20260502102525 53 42 2.0 4.0 0.00 1.00 0.00 92 1016.1
20260502102411 54 43 2.0 4.0 0.00 1.00 0.00 92 1016.1
20260502102311 54 32 2.0 4.0 0.00 1.00 0.00 92 1016.1
20260502102211 54 4 2.0 4.0 0.00 1.00 0.00 92 1016.1
20260502102111 54 47 2.0 4.0 0.00 1.00 0.00 92 1016.0
20260502102055 54 44 2.0 4.0 0.00 1.00 0.00 92 1016.0
20260502102011 54 35 2.0 4.0 0.00 1.00 0.00 92 1016.0
20260502101912 54 16 2.0 4.0 0.00 1.00 0.00 92 1016.0
20260502101811 54 24 2.0 4.0 0.00 1.00 0.00 92 1016.0
20260502101711 54 29 2.0 4.0 0.00 1.00 0.00 92 1016.0
20260502101556 54 35 2.0 4.0 0.00 1.00 0.00 92 1015.9
20260502101457 54 14 2.0 3.0 0.00 1.00 0.00 92 1015.9
20260502101356 54 15 2.0 3.0 0.00 1.00 0.00 92 1015.8
20260502101256 54 49 2.0 4.0 0.00 1.00 0.00 92 1015.8
20260502101156 54 2 2.0 4.0 0.00 1.00 0.00 92 1015.7
20260502101057 54 46 2.0 4.0 0.00 1.00 0.00 92 1015.7
20260502100957 54 7 2.0 4.0 0.00 1.00 0.00 92 1015.7
20260502100856 54 17 2.0 4.0 0.00 1.00 0.00 92 1015.7
20260502100756 54 356 2.0 4.0 0.00 1.00 0.00 92 1015.7
20260502100655 54 30 1.0 4.0 0.00 1.00 0.00 92 1015.7
20260502100556 54 30 1.0 4.0 0.00 1.00 0.00 92 1015.7
20260502100541 54 312 1.0 4.0 0.00 1.00 0.00 92 1015.7
20260502100427 54 13 1.0 4.0 0.00 1.00 0.00 92 1015.7
20260502100327 54 25 1.0 4.0 0.00 1.00 0.00 92 1015.6
20260502100226 54 339 1.0 3.0 0.00 1.00 0.00 92 1015.6
20260502100126 54 33 1.0 3.0 0.00 1.00 0.00 92 1015.6
20260502091421 55 18 3.0 7.0 0.00 1.00 0.00 91 1015.2
20260502091320 55 22 3.0 7.0 0.00 1.00 0.00 91 1015.2
20260502091221 55 32 2.0 5.0 0.00 1.00 0.00 92 1015.2
20260502091115 55 7 2.0 5.0 0.00 1.00 0.00 92 1015.2
20260502091015 55 318 3.0 5.0 0.00 1.00 0.00 92 1015.1
20260502090932 55 319 2.0 5.0 0.00 1.00 0.00 92 1015.1
20260502090908 55 10 2.0 5.0 0.00 1.00 0.00 92 1015.1
20260502090809 55 34 2.0 5.0 0.00 1.00 0.00 93 1015.1
20260502090657 55 31 2.0 4.0 0.00 1.00 0.00 93 1015.0
20260502090557 55 340 2.0 4.0 0.00 1.00 0.00 93 1014.9
20260502090456 55 32 2.0 4.0 0.00 1.00 0.00 93 1014.8
20260502090425 56 13 2.0 4.0 0.00 1.00 0.00 93 1014.7
20260502090358 56 14 2.0 4.0 0.00 1.00 0.00 93 1014.7
20260502090258 56 11 2.0 5.0 0.00 1.00 0.00 93 1014.7
20260502090157 56 43 2.0 6.0 0.00 1.00 0.00 93 1014.6
20260502090134 56 348 2.0 7.0 0.00 1.00 0.00 92 1014.5
20260502071443 57 27 2.0 7.0 0.00 1.00 0.00 95 1014.7
20260502071426 57 52 2.0 7.0 0.00 1.00 0.00 95 1014.7
20260502071343 57 31 2.0 7.0 0.00 1.00 0.00 94 1014.7
20260502071244 57 27 2.0 7.0 0.00 1.00 0.00 94 1014.7
20260502071129 57 32 2.0 7.0 0.00 1.00 0.00 94 1014.7
20260502071028 57 343 2.0 7.0 0.00 1.00 0.00 94 1014.7
20260502070928 57 31 2.0 7.0 0.00 1.00 0.00 94 1014.6
20260502070921 57 14 2.0 7.0 0.00 1.00 0.00 94 1014.6
20260502070828 57 357 2.0 7.0 0.00 1.00 0.00 94 1014.6
20260502070728 57 343 2.0 7.0 0.00 1.00 0.00 94 1014.6
20260502070622 57 18 3.0 7.0 0.00 1.00 0.00 94 1014.6
20260502070522 57 28 3.0 7.0 0.00 1.00 0.00 94 1014.6
20260502070423 57 329 3.0 7.0 0.00 1.00 0.00 94 1014.6
20260502070323 57 35 3.0 8.0 0.00 1.00 0.00 94 1014.6
20260502070223 57 27 3.0 8.0 0.00 1.00 0.00 94 1014.6
20260502070122 57 31 3.0 8.0 0.00 1.00 0.00 94 1014.7
20260502070022 57 23 3.0 8.0 0.00 1.00 0.00 94 1014.7
20260502065922 57 19 3.0 8.0 0.00 1.00 0.00 94 1014.7
20260502065914 57 25 3.0 8.0 0.00 1.00 0.00 94 1014.7
20260502065822 57 8 3.0 8.0 0.00 1.00 0.00 95 1014.7
20260502065722 57 27 3.0 8.0 0.00 1.00 0.00 95 1014.6
20260502065616 57 26 3.0 8.0 0.00 1.00 0.00 95 1014.6
20260502065517 57 16 3.0 8.0 0.00 1.00 0.00 95 1014.6
20260502065416 57 26 3.0 8.0 0.00 1.00 0.00 95 1014.6
20260502065316 57 9 2.0 5.0 0.00 1.00 0.00 95 1014.5
20260502065213 57 76 3.0 6.0 0.00 1.00 0.00 95 1014.5
20260502065131 57 30 3.0 6.0 0.00 1.00 0.00 95 1014.4
20260502065114 57 40 3.0 6.0 0.00 1.00 0.00 95 1014.5
20260502065015 57 341 3.0 6.0 0.00 1.00 0.00 95 1014.4
20260502064904 57 6 3.0 6.0 0.00 1.00 0.00 95 1014.4
20260502064804 57 26 3.0 7.0 0.00 1.00 0.00 95 1014.5
20260502064704 57 25 3.0 7.0 0.00 1.00 0.00 95 1014.5
20260502064604 57 6 3.0 7.0 0.00 1.00 0.00 95 1014.5
20260502064459 57 30 3.0 7.0 0.00 1.00 0.00 95 1014.5
20260502064409 57 23 3.0 7.0 0.00 1.00 0.00 95 1014.5
20260502064357 57 26 3.0 7.0 0.00 1.00 0.00 95 1014.6
20260502064257 57 22 3.0 7.0 0.00 1.00 0.00 95 1014.6
20260502064157 57 358 3.0 7.0 0.00 1.00 0.00 95 1014.6
20260502064057 57 38 3.0 9.0 0.00 1.00 0.00 95 1014.6
20260502063957 57 356 3.0 9.0 0.00 1.00 0.00 95 1014.6
20260502063909 57 359 3.0 9.0 0.00 1.00 0.00 95 1014.6
20260502063857 56 39 3.0 9.0 0.00 1.00 0.00 95 1014.6
20260502063758 56 2 3.0 9.0 0.00 1.00 0.00 95 1014.6
20260502063657 56 26 3.0 9.0 0.00 1.00 0.00 95 1014.6
20260502063552 56 26 3.0 9.0 0.00 1.00 0.00 95 1014.6
20260502063453 56 28 3.0 9.0 0.00 1.00 0.00 95 1014.5
20260502063409 56 32 3.0 9.0 0.00 1.00 0.00 95 1014.5
20260502063353 56 16 3.0 9.0 0.00 1.00 0.00 95 1014.5
20260502063253 56 345 3.0 9.0 0.00 1.00 0.00 95 1014.5
20260502063153 56 52 3.0 9.0 0.00 1.00 0.00 95 1014.5
20260502063046 56 46 3.0 7.0 0.00 1.00 0.00 95 1014.4
20260502062946 56 350 3.0 6.0 0.00 1.00 0.00 95 1014.4
20260502062904 56 23 3.0 6.0 0.00 1.00 0.00 95 1014.4
20260502062847 56 288 3.0 9.0 0.00 1.00 0.00 95 1014.4
20260502062735 56 26 3.0 9.0 0.00 1.00 0.00 95 1014.4
20260502062635 56 24 3.0 9.0 0.00 1.00 0.00 95 1014.4
20260502062535 56 71 3.0 9.0 0.00 1.00 0.00 95 1014.4
20260502062423 56 42 3.0 9.0 0.00 1.00 0.00 95 1014.4
20260502062358 56 10 3.0 9.0 0.00 1.00 0.00 95 1014.4
20260502062323 56 27 3.0 9.0 0.00 1.00 0.00 95 1014.4
20260502062223 56 304 3.0 9.0 0.00 1.00 0.00 95 1014.4
20260502062123 56 6 3.0 9.0 0.00 1.00 0.00 95 1014.3
20260502062023 56 356 3.0 9.0 0.00 1.00 0.00 95 1014.3
20260502061917 56 15 3.0 9.0 0.00 1.00 0.00 95 1014.3
20260502061857 56 21 3.0 9.0 0.00 1.00 0.00 95 1014.2
20260502061814 56 34 3.0 9.0 0.00 1.00 0.00 95 1014.2
20260502061713 56 17 3.0 9.0 0.00 1.00 0.00 95 1014.2
20260502061553 56 28 3.0 9.0 0.00 1.00 0.00 95 1014.2
20260502061446 56 72 3.0 9.0 0.00 1.00 0.00 95 1014.2
20260502061346 56 3 3.0 9.0 0.00 1.00 0.00 95 1014.2
20260502061241 56 13 4.0 9.0 0.00 1.00 0.00 95 1014.2
20260502061135 56 29 4.0 9.0 0.00 1.00 0.00 95 1014.2
20260502061035 56 356 4.0 7.0 0.00 1.00 0.00 95 1014.2
20260502060929 56 23 4.0 7.0 0.00 1.00 0.00 95 1014.2
20260502060851 56 31 4.0 7.0 0.00 1.00 0.00 95 1014.2
20260502060823 56 25 4.0 7.0 0.00 1.00 0.00 95 1014.2
20260502060711 56 31 4.0 7.0 0.00 1.00 0.00 95 1014.1
20260502060611 56 26 4.0 7.0 0.00 1.00 0.00 95 1014.2
20260502060511 56 33 4.0 7.0 0.00 1.00 0.00 95 1014.2
20260502060359 56 5 4.0 7.0 0.00 1.00 0.00 95 1014.2
20260502060346 56 4 4.0 11.0 0.00 1.00 0.00 95 1014.2
20260502060258 56 1 4.0 11.0 0.00 1.00 0.00 95 1014.2
20260502060158 56 22 4.0 11.0 0.00 1.00 0.00 95 1014.2
20260502060108 56 7 3.0 11.0 0.00 1.00 0.00 95 1014.2
20260502060058 56 312 4.0 11.0 0.00 1.00 0.00 95 1014.2
20260502055957 56 43 4.0 11.0 0.00 1.00 0.00 95 1014.2
20260502055951 56 22 3.0 11.0 0.00 1.00 0.00 95 1014.2
20260502055753 56 343 3.0 11.0 0.00 1.00 0.00 95 1014.2
20260502055653 56 22 3.0 11.0 0.00 1.00 0.00 95 1014.2
20260502055613 56 36 4.0 11.0 0.00 1.00 0.00 95 1014.2
20260502055553 56 45 4.0 11.0 0.00 1.00 0.00 95 1014.1
20260502055457 56 359 4.0 11.0 0.00 1.00 0.00 95 1014.1
20260502055452 56 38 4.0 11.0 0.00 1.00 0.00 95 1014.2
20260502055253 56 50 4.0 9.0 0.00 1.00 0.00 95 1014.2
20260502055153 56 21 4.0 9.0 0.00 1.00 0.00 95 1014.2
20260502055105 56 30 4.0 9.0 0.00 1.00 0.00 96 1014.2
20260502055053 56 26 4.0 9.0 0.00 1.00 0.00 95 1014.2
20260502054958 56 34 4.0 9.0 0.00 1.00 0.00 96 1014.2
20260502054952 56 43 4.0 9.0 0.00 1.00 0.00 96 1014.2
20260502054753 56 24 4.0 9.0 0.00 1.00 0.00 96 1014.2
20260502054653 56 28 4.0 9.0 0.00 1.00 0.00 96 1014.2
20260502054601 56 23 4.0 9.0 0.00 1.00 0.00 96 1014.2
20260502054553 56 25 4.0 9.0 0.00 1.00 0.00 96 1014.2
20260502054453 56 88 4.0 9.0 0.00 1.00 0.00 96 1014.2
20260502054446 56 18 4.0 9.0 0.00 1.00 0.00 96 1014.2
20260502054253 56 348 4.0 8.0 0.00 1.00 0.00 96 1014.3
20260502054153 56 30 4.0 8.0 0.00 1.00 0.00 96 1014.2
20260502054101 56 19 4.0 8.0 0.00 1.00 0.00 96 1014.3
20260502054053 56 15 4.0 8.0 0.00 1.00 0.00 96 1014.3
20260502053953 56 24 4.0 8.0 0.00 1.00 0.00 96 1014.3
20260502053945 56 7 4.0 8.0 0.00 1.00 0.00 96 1014.3
20260502053753 56 12 4.0 8.0 0.00 1.00 0.00 96 1014.3
20260502053648 56 20 3.0 8.0 0.00 1.00 0.00 96 1014.3
20260502053547 56 32 3.0 8.0 0.00 1.00 0.00 97 1014.3
20260502053447 56 9 3.0 6.0 0.00 1.00 0.00 97 1014.4
20260502053348 56 20 3.0 6.0 0.00 1.00 0.00 97 1014.4
20260502053340 56 4 3.0 6.0 0.00 1.00 0.00 97 1014.4
20260502053248 56 46 3.0 6.0 0.00 1.00 0.00 97 1014.4
20260502053147 56 30 3.0 6.0 0.00 1.00 0.00 97 1014.4
20260502053045 56 53 3.0 5.0 0.00 1.00 0.00 97 1014.5
20260502052944 56 26 3.0 5.0 0.00 1.00 0.00 97 1014.5
20260502052843 56 32 3.0 5.0 0.00 1.00 0.00 97 1014.5
20260502052742 56 15 3.0 5.0 0.00 1.00 0.00 97 1014.5
20260502052642 56 48 3.0 5.0 0.00 1.00 0.00 97 1014.6
20260502052542 56 33 3.0 5.0 0.00 1.00 0.00 97 1014.6
20260502052429 56 78 3.0 5.0 0.00 1.00 0.00 97 1014.6
20260502052324 56 9 3.0 5.0 0.00 1.00 0.00 97 1014.6
20260502052224 56 44 3.0 5.0 0.00 1.00 0.00 97 1014.6
20260502052124 56 26 3.0 5.0 0.00 1.00 0.00 97 1014.6
20260502052017 56 68 2.0 5.0 0.00 1.00 0.00 97 1014.7
20260502051912 56 41 3.0 6.0 0.00 1.00 0.00 97 1014.7
20260502051841 56 52 3.0 9.0 0.00 1.00 0.00 97 1014.7
20260502051805 56 19 3.0 9.0 0.00 1.00 0.00 97 1014.7
20260502051700 56 43 3.0 9.0 0.00 1.00 0.00 97 1014.7
20260502051544 56 46 3.0 9.0 0.00 1.00 0.00 97 1014.7
20260502051417 56 23 3.0 9.0 0.00 1.00 0.00 97 1014.7
20260502051340 56 6 3.0 9.0 0.00 1.00 0.00 97 1014.6
20260502051312 56 356 3.0 9.0 0.00 1.00 0.00 97 1014.6
20260502051211 56 57 4.0 9.0 0.00 1.00 0.00 97 1014.6
20260502051111 56 25 4.0 9.0 0.00 1.00 0.00 97 1014.6
20260502051011 56 38 4.0 9.0 0.00 1.00 0.00 97 1014.6
20260502050912 56 12 4.0 9.0 0.00 1.00 0.00 97 1014.5
20260502050841 56 37 4.0 9.0 0.00 1.00 0.00 97 1014.5
20260502050812 56 3 4.0 9.0 0.00 1.00 0.00 97 1014.5
20260502050712 56 13 4.0 9.0 0.00 1.00 0.00 97 1014.4
20260502050612 56 32 4.0 9.0 0.00 1.00 0.00 97 1014.4
20260502050512 56 37 3.0 9.0 0.00 1.00 0.00 97 1014.3
20260502050411 56 9 3.0 9.0 0.00 1.00 0.00 97 1014.2
20260502050340 56 18 3.0 9.0 0.00 1.00 0.00 97 1014.2
20260502050311 56 30 3.0 9.0 0.00 1.00 0.00 97 1014.2
20260502050207 56 48 3.0 7.0 0.00 1.00 0.00 97 1014.3
20260502050107 56 36 3.0 7.0 0.00 1.00 0.00 97 1014.3
20260502050101 56 13 3.0 8.0 0.00 1.00 1.00 97 1014.4
20260502050006 56 19 3.0 7.0 0.00 1.00 0.00 97 1014.4
20260502045946 56 37 3.0 8.0 0.00 1.00 1.00 97 1014.4
20260502045800 56 26 3.0 8.0 0.00 1.00 1.00 97 1014.4
20260502045700 56 15 3.0 8.0 0.00 1.00 1.00 97 1014.4
20260502045600 56 111 3.0 8.0 0.00 1.00 1.00 97 1014.3
20260502045454 56 22 4.0 8.0 0.00 1.00 1.00 97 1014.4
20260502045353 56 32 4.0 8.0 0.00 1.00 1.00 97 1014.4
20260502045334 56 24 4.0 8.0 0.00 1.00 1.00 97 1014.4
20260502045254 56 75 4.0 8.0 0.00 1.00 1.00 97 1014.3
20260502045154 56 20 4.0 8.0 0.00 1.00 1.00 97 1014.4
20260502045059 56 57 4.0 8.0 0.00 1.00 1.00 97 1014.3
20260502045048 56 31 4.0 8.0 0.00 1.00 1.00 97 1014.3
20260502044946 56 281 4.0 8.0 0.00 1.00 1.00 97 1014.3
20260502044940 56 57 4.0 8.0 0.00 1.00 1.00 97 1014.3
20260502044736 56 24 4.0 8.0 0.00 1.00 1.00 97 1014.3
20260502044630 56 46 3.0 8.0 0.00 1.00 1.00 98 1014.4
20260502044530 56 339 3.0 8.0 0.00 1.00 1.00 98 1014.4
20260502044423 56 27 3.0 8.0 0.00 1.00 1.00 98 1014.4
20260502044334 56 39 3.0 8.0 0.00 1.00 1.00 98 1014.4
20260502044318 56 27 3.0 8.0 0.00 1.00 1.00 98 1014.4
20260502044212 56 335 3.0 7.0 0.00 1.00 1.00 98 1014.4
20260502044100 56 23 3.0 7.0 0.00 1.00 1.00 98 1014.3
20260502044000 56 11 3.0 8.0 0.00 1.00 1.00 98 1014.3
20260502043900 56 5 3.0 8.0 0.00 1.00 1.00 98 1014.4
20260502043834 56 308 3.0 8.0 0.00 1.00 1.00 98 1014.3
20260502043800 56 13 3.0 8.0 0.00 1.00 1.00 98 1014.3
20260502043700 56 48 3.0 8.0 0.00 1.00 1.00 98 1014.3
20260502043600 56 318 3.0 8.0 0.00 1.00 1.00 98 1014.3
20260502043500 56 23 3.0 8.0 0.00 1.00 1.00 98 1014.3
20260502043400 56 20 3.0 8.0 0.00 1.00 1.00 98 1014.4
20260502043334 56 6 3.0 8.0 0.00 1.00 1.00 98 1014.4
20260502043300 56 12 3.0 8.0 0.00 1.00 1.00 98 1014.4
20260502043200 56 12 3.0 8.0 0.00 1.00 1.00 98 1014.4
20260502043100 56 19 3.0 8.0 0.00 1.00 1.00 98 1014.4
20260502043001 56 47 3.0 8.0 0.00 1.00 1.00 98 1014.4
20260502042900 56 29 3.0 7.0 0.00 1.00 1.00 98 1014.5
20260502042835 56 4 3.0 7.0 0.00 1.00 1.00 98 1014.5
20260502042831 56 1 3.0 8.0 0.00 1.00 1.00 98 1014.3
20260502042800 56 351 3.0 7.0 0.00 1.00 1.00 98 1014.5
20260502042709 56 25 3.0 7.0 0.00 1.00 1.00 98 1014.5
20260502042559 56 346 3.0 7.0 0.00 1.00 1.00 98 1014.5
20260502042500 56 25 3.0 8.0 0.00 1.00 1.00 98 1014.4
20260502042440 56 11 3.0 8.0 0.00 1.00 1.00 98 1014.4
20260502042300 56 259 3.0 8.0 0.00 1.00 1.00 98 1014.3
20260502042200 56 309 3.0 8.0 0.00 1.00 1.00 98 1014.3
20260502042106 56 344 3.0 8.0 0.00 1.00 1.00 98 1014.3
20260502042100 56 314 3.0 8.0 0.00 1.00 1.00 98 1014.3
20260502042001 56 332 3.0 8.0 0.00 1.00 1.00 98 1014.1
20260502041941 56 15 3.0 8.0 0.00 1.00 1.00 98 1014.3
20260502041800 56 25 3.0 8.0 0.00 1.00 1.00 98 1014.3
20260502041654 56 6 3.0 8.0 0.00 1.00 1.00 98 1014.3
20260502041555 56 255 3.0 8.0 0.00 1.00 1.00 98 1014.3
20260502041449 57 342 3.0 7.0 0.00 1.00 1.00 98 1014.3
20260502041342 57 22 3.0 7.0 0.00 1.00 1.00 98 1014.3
20260502041335 57 6 3.0 7.0 0.00 1.00 1.00 98 1014.3
20260502041242 57 31 3.0 7.0 0.00 1.00 1.00 98 1014.2
20260502041142 57 315 2.0 6.0 0.00 1.00 1.00 98 1014.1
20260502041042 57 312 3.0 6.0 0.00 1.00 1.00 98 1014.1
20260502040936 57 59 2.0 6.0 0.00 1.00 1.00 98 1014.2
20260502040836 57 49 2.0 6.0 0.00 1.00 1.00 98 1014.2
20260502040829 57 39 2.0 6.0 0.00 1.00 1.00 98 1014.2
20260502040737 57 5 2.0 6.0 0.00 1.00 1.00 98 1014.3
20260502040636 57 8 2.0 6.0 0.00 1.00 1.00 98 1014.3
20260502040536 57 5 2.0 6.0 0.00 1.00 1.00 98 1014.2
20260502040436 57 7 2.0 6.0 0.00 1.00 1.00 98 1014.3
20260502040336 57 27 2.0 6.0 0.00 1.00 1.00 98 1014.3
20260502040329 57 16 2.0 6.0 0.00 1.00 1.00 98 1014.3
20260502040236 57 43 2.0 6.0 0.00 1.00 1.00 98 1014.1
20260502040137 57 60 2.0 6.0 0.00 1.00 1.00 98 1014.2
20260502040030 57 49 2.0 5.0 0.00 1.00 1.00 98 1014.2
20260502035930 57 3 2.0 4.0 0.00 1.00 1.00 98 1014.2
20260502035831 57 13 2.0 4.0 0.00 1.00 1.00 98 1014.2
20260502035732 57 359 2.0 4.0 0.00 1.00 1.00 98 1014.2
20260502035631 57 27 2.0 4.0 0.00 1.00 1.00 98 1014.2
20260502035554 57 357 2.0 4.0 0.01 1.00 1.00 98 1014.3
20260502035531 57 25 2.0 4.0 0.00 1.00 1.00 98 1014.2
20260502035440 57 6 2.0 4.0 0.01 1.00 1.00 98 1014.3
20260502035435 57 357 2.0 4.0 0.01 1.00 1.00 98 1014.3
20260502035201 57 29 2.0 4.0 0.01 1.00 1.00 98 1014.3
20260502035101 57 58 2.0 4.0 0.02 1.00 1.00 98 1014.3
20260502035001 57 43 2.0 4.0 0.02 1.00 1.00 98 1014.3
20260502034900 57 41 2.0 4.0 0.02 1.00 1.00 98 1014.2
20260502034800 57 51 2.0 4.0 0.02 1.00 1.00 98 1014.1
20260502034700 57 350 2.0 4.0 0.02 1.00 1.00 98 1014.1
20260502034600 57 7 2.0 4.0 0.02 1.00 1.00 98 1014.1
20260502034501 57 28 2.0 5.0 0.02 1.00 1.00 98 1014.1
20260502034400 57 20 2.0 5.0 0.02 1.00 1.00 98 1014.1
20260502034300 57 40 2.0 5.0 0.02 1.00 1.00 98 1014.0
20260502034200 57 24 2.0 5.0 0.02 1.00 1.00 98 1014.0
20260502034100 57 36 2.0 5.0 0.02 1.00 1.00 98 1013.9
20260502034000 57 9 2.0 5.0 0.02 1.00 1.00 98 1013.8
20260502033900 57 33 2.0 5.0 0.02 1.00 1.00 98 1013.7
20260502033758 57 10 2.0 5.0 0.02 1.00 1.00 98 1013.6
20260502033749 57 33 2.0 5.0 0.02 1.00 1.00 98 1013.6
20260502033649 57 20 2.0 5.0 0.02 1.00 1.00 98 1013.5
20260502033549 57 33 3.0 5.0 0.02 1.00 1.00 98 1013.5
20260502033449 57 299 2.0 5.0 0.02 1.00 1.00 98 1013.5
20260502033345 57 8 2.0 5.0 0.02 1.00 1.00 98 1013.5
20260502033245 57 12 2.0 3.0 0.02 1.00 1.00 98 1013.5
20260502033145 57 272 2.0 3.0 0.02 1.00 1.00 98 1013.5
20260502033045 57 41 2.0 3.0 0.02 1.00 1.00 98 1013.5
20260502032945 57 327 2.0 3.0 0.02 1.00 1.00 98 1013.5
20260502032830 57 11 2.0 4.0 0.02 1.00 1.00 98 1013.5
20260502032744 57 46 2.0 4.0 0.02 1.00 1.00 98 1013.4
20260502032730 57 345 2.0 4.0 0.02 1.00 1.00 98 1013.4
20260502032615 57 25 2.0 4.0 0.02 1.00 1.00 98 1013.4
20260502032459 57 21 2.0 4.0 0.02 1.00 1.00 98 1013.4
20260502032359 57 39 2.0 5.0 0.02 1.00 1.00 98 1013.4
20260502032259 58 12 2.0 5.0 0.02 1.00 1.00 98 1013.3
20260502032244 58 48 2.0 5.0 0.02 1.00 1.00 98 1013.3
20260502032144 58 18 2.0 5.0 0.02 1.00 1.00 98 1013.2
20260502032044 58 29 2.0 5.0 0.02 1.00 1.00 98 1013.2
20260502031915 58 358 2.0 5.0 0.02 1.00 1.00 98 1013.2
20260502031801 58 346 2.0 5.0 0.02 1.00 1.00 98 1013.2
20260502031745 58 24 2.0 5.0 0.03 1.00 1.00 98 1013.2
20260502031701 58 22 2.0 5.0 0.03 1.00 1.00 98 1013.2
20260502031601 58 37 2.0 5.0 0.03 1.00 1.00 98 1013.3
20260502031500 58 350 2.0 5.0 0.03 1.00 1.00 98 1013.2
20260502031400 58 20 2.0 5.0 0.03 1.00 1.00 98 1013.2
20260502031300 58 12 2.0 5.0 0.03 1.00 1.00 98 1013.2
20260502031230 58 12 2.0 5.0 0.03 1.00 1.00 98 1013.2
20260502031146 58 41 2.0 5.0 0.03 1.00 1.00 98 1013.2
20260502031046 58 342 2.0 5.0 0.03 1.00 1.00 98 1013.1
20260502030946 58 9 2.0 5.0 0.03 1.00 1.00 98 1013.1
20260502030846 58 45 2.0 7.0 0.03 1.00 1.00 98 1013.0
20260502030731 58 27 2.0 7.0 0.03 1.00 1.00 98 1013.0
20260502030631 58 34 2.0 7.0 0.03 1.00 1.00 98 1012.9
20260502030507 58 42 2.0 7.0 0.03 1.00 1.00 98 1012.8
20260502030407 58 359 3.0 7.0 0.03 1.00 1.00 98 1012.8
20260502030307 58 20 3.0 7.0 0.03 1.00 1.00 98 1012.7
20260502030217 58 37 3.0 7.0 0.03 1.00 1.00 98 1012.6
20260502030207 58 52 3.0 8.0 0.03 1.00 1.00 98 1012.6
20260502030107 58 353 3.0 8.0 0.03 1.00 1.00 98 1012.5
20260502030002 58 9 3.0 8.0 0.03 1.00 1.00 98 1012.5
20260502025901 58 354 3.0 8.0 0.03 1.00 1.00 98 1012.4
20260502025801 58 29 3.0 8.0 0.03 1.00 1.00 98 1012.4
20260502025717 58 21 3.0 8.0 0.03 1.00 1.00 98 1012.3
20260502025701 58 23 3.0 8.0 0.03 1.00 1.00 98 1012.3
20260502025601 58 30 3.0 8.0 0.02 1.00 1.00 98 1012.3
20260502025501 58 358 3.0 8.0 0.02 1.00 1.00 98 1012.3
20260502025401 58 57 3.0 8.0 0.02 0.99 0.99 98 1012.3
20260502025301 58 40 2.0 8.0 0.02 0.99 0.99 98 1012.2
20260502025218 58 34 2.0 8.0 0.02 0.99 0.99 98 1012.2
20260502025201 58 18 2.0 7.0 0.02 0.99 0.99 98 1012.2
20260502025101 58 45 2.0 5.0 0.01 0.98 0.98 98 1012.2
20260502024946 58 25 2.0 5.0 0.01 0.98 0.98 98 1012.4
20260502024816 58 26 2.0 5.0 0.01 0.98 0.98 98 1012.4
20260502024712 58 19 2.0 5.0 0.01 0.98 0.98 98 1012.5
20260502024708 58 24 2.0 5.0 0.01 0.98 0.98 98 1012.5
20260502024601 58 43 2.0 5.0 0.01 0.98 0.98 98 1012.5
20260502024501 58 25 2.0 5.0 0.01 0.98 0.98 98 1012.5
20260502024401 58 6 3.0 5.0 0.01 0.98 0.98 98 1012.4
20260502024301 58 9 3.0 5.0 0.01 0.98 0.98 98 1012.4
20260502024212 58 37 3.0 5.0 0.01 0.98 0.98 98 1012.3
20260502024159 58 41 3.0 5.0 0.01 0.98 0.98 98 1012.3
20260502024100 58 356 3.0 5.0 0.01 0.98 0.98 98 1012.2
20260502024000 58 9 3.0 5.0 0.01 0.98 0.98 98 1012.3
20260502023859 58 36 3.0 5.0 0.00 0.98 0.98 98 1012.3
20260502023750 58 48 3.0 5.0 0.00 0.98 0.98 98 1012.4
20260502023706 58 39 3.0 5.0 0.00 0.98 0.98 98 1012.4
20260502023632 58 49 3.0 7.0 0.00 0.98 0.98 98 1012.4
20260502023514 58 54 3.0 7.0 0.00 0.98 0.98 98 1012.4
20260502023407 58 24 3.0 7.0 0.00 0.98 0.98 98 1012.4
20260502023307 58 20 3.0 7.0 0.00 0.98 0.98 98 1012.4
20260502023208 58 19 3.0 7.0 0.00 0.98 0.98 98 1012.3
20260502023139 58 20 2.0 4.0 0.00 0.98 0.98 98 1012.7
20260502023108 58 353 3.0 7.0 0.00 0.98 0.98 98 1012.3
20260502023025 58 40 2.0 7.0 0.00 0.98 0.98 98 1012.4
20260502022902 58 31 3.0 7.0 0.00 0.98 0.98 98 1012.4
20260502022810 58 11 2.0 7.0 0.00 0.98 0.98 98 1012.5
20260502022805 58 20 2.0 4.0 0.00 0.98 0.98 98 1012.7
20260502022602 58 37 2.0 4.0 0.00 0.98 0.98 98 1012.7
20260502022502 58 30 2.0 6.0 0.00 0.98 0.98 98 1012.8
20260502022401 58 28 2.0 6.0 0.00 0.98 0.98 98 1012.8
20260502022306 58 31 2.0 6.0 0.00 0.98 0.98 98 1012.8
20260502022202 58 39 2.0 6.0 0.00 0.98 0.98 98 1012.8
20260502022101 58 3 2.0 6.0 0.00 0.98 0.98 98 1012.8
20260502022001 58 285 2.0 6.0 0.00 0.98 0.98 98 1012.8
20260502021902 58 37 3.0 6.0 0.00 0.98 0.98 98 1012.8
20260502021802 58 8 2.0 6.0 0.00 0.98 0.98 98 1012.8
20260502021702 58 356 2.0 6.0 0.00 0.97 0.98 98 1012.8
20260502021601 58 3 2.0 6.0 0.00 0.97 0.97 98 1012.7
20260502021500 58 10 2.0 5.0 0.00 0.97 0.97 98 1012.7
20260502021400 59 33 2.0 5.0 0.00 0.97 0.97 98 1012.6
20260502021247 59 22 2.0 5.0 0.00 0.97 0.97 98 1012.6
20260502021201 59 12 2.0 5.0 0.00 0.97 0.97 98 1012.6
20260502021147 59 344 2.0 4.0 0.00 0.97 0.97 98 1012.6
20260502021047 59 59 2.0 4.0 0.00 0.97 0.97 98 1012.6
20260502020947 59 3 2.0 4.0 0.00 0.97 0.97 98 1012.5
20260502020847 59 45 2.0 4.0 0.00 0.97 0.97 98 1012.5
20260502020747 59 12 2.0 4.0 0.00 0.97 0.97 98 1012.4
20260502020659 59 326 2.0 4.0 0.00 0.97 0.97 98 1012.4
20260502020632 59 35 2.0 4.0 0.00 0.97 0.97 98 1012.4
20260502020532 59 333 2.0 4.0 0.00 0.97 0.97 98 1012.4
20260502020430 59 136 2.0 4.0 0.00 0.97 0.97 98 1012.4
20260502020317 59 37 2.0 4.0 0.00 0.97 0.97 98 1012.3
20260502020216 59 46 2.0 4.0 0.00 0.97 0.97 98 1012.4
20260502020159 59 17 2.0 4.0 0.00 0.97 0.97 98 1012.4
20260502020117 59 4 1.0 4.0 0.00 0.97 0.97 98 1012.4
20260502020017 59 10 2.0 4.0 0.00 0.97 0.97 98 1012.3
20260502015902 59 22 2.0 4.0 0.00 0.97 0.97 98 1012.4
20260502015746 59 314 1.0 4.0 0.00 0.97 0.97 98 1012.4
20260502015659 59 356 1.0 4.0 0.00 0.97 0.97 98 1012.5
20260502015617 59 352 1.0 4.0 0.00 0.97 0.97 98 1012.5
20260502015503 59 27 1.0 4.0 0.00 0.97 0.97 98 1012.5
20260502015400 59 27 2.0 4.0 0.00 0.97 0.97 98 1012.6
20260502015300 59 38 2.0 4.0 0.00 0.97 0.97 98 1012.6
20260502015201 59 20 2.0 4.0 0.00 0.97 0.97 98 1012.5
20260502015146 59 20 2.0 5.0 0.00 0.97 0.97 98 1012.5
20260502015101 59 14 2.0 5.0 0.00 0.97 0.97 98 1012.5
20260502015000 59 44 2.0 5.0 0.00 0.97 0.97 98 1012.4
20260502014900 59 22 2.0 5.0 0.00 0.97 0.97 98 1012.3
20260502014801 59 357 2.0 5.0 0.00 0.97 0.97 98 1012.3
20260502014646 59 41 2.0 5.0 0.00 0.97 0.97 98 1012.3
20260502014601 59 28 2.0 5.0 0.00 0.97 0.97 98 1012.2
20260502014502 59 23 2.0 5.0 0.00 0.97 0.97 98 1012.2
20260502014347 59 45 2.0 5.0 0.01 0.97 0.97 98 1012.2
20260502014247 59 356 2.0 6.0 0.01 0.97 0.97 98 1012.2
20260502014147 59 18 2.0 6.0 0.02 0.97 0.97 98 1012.1
20260502014047 59 19 2.0 6.0 0.02 0.97 0.97 98 1012.2
20260502013932 59 7 2.0 6.0 0.02 0.97 0.97 98 1012.2
20260502013832 59 8 2.0 6.0 0.02 0.97 0.97 98 1012.1
20260502013726 59 53 2.0 6.0 0.03 0.97 0.97 98 1012.1
20260502013621 59 5 2.0 6.0 0.04 0.97 0.97 98 1012.1
20260502013525 59 51 2.0 6.0 0.04 0.97 0.97 98 1012.1
20260502013420 59 344 2.0 6.0 0.04 0.97 0.97 98 1012.1
20260502013335 59 1 1.0 3.0 0.07 0.97 0.97 98 1011.9
20260502013320 59 8 2.0 6.0 0.05 0.97 0.97 98 1012.0
20260502013226 59 2 2.0 5.0 0.06 0.97 0.97 98 1012.0
20260502013221 59 1 1.0 3.0 0.07 0.97 0.97 98 1011.9
20260502013002 59 25 1.0 3.0 0.08 0.97 0.97 98 1011.9
20260502012901 59 278 1.0 3.0 0.09 0.97 0.97 98 1011.9
20260502012803 59 4 1.0 2.0 0.09 0.97 0.97 98 1011.9
20260502012702 59 22 1.0 2.0 0.10 0.97 0.97 98 1011.8
20260502012616 59 16 1.0 2.0 0.11 0.97 0.97 98 1011.8
20260502012600 59 14 1.0 2.0 0.13 0.97 0.97 98 1011.8
20260502012500 59 336 2.0 2.0 0.13 0.97 0.97 98 1011.8
20260502012400 59 27 2.0 2.0 0.13 0.97 0.97 98 1011.7
20260502012300 59 6 2.0 4.0 0.14 0.97 0.97 98 1011.7
20260502012146 59 20 2.0 4.0 0.14 0.97 0.97 98 1011.6
20260502012115 59 5 2.0 4.0 0.14 0.97 0.97 98 1011.6
20260502012047 59 357 2.0 4.0 0.14 0.97 0.97 98 1011.6
20260502011946 59 352 2.0 4.0 0.14 0.97 0.97 98 1011.5
20260502011847 59 12 2.0 4.0 0.14 0.97 0.97 98 1011.5
20260502011746 59 9 2.0 4.0 0.15 0.97 0.97 98 1011.5
20260502011647 59 4 2.0 4.0 0.15 0.97 0.97 98 1011.5
20260502011616 59 354 2.0 4.0 0.15 0.98 0.97 98 1011.5
20260502011548 59 332 2.0 4.0 0.15 0.98 0.97 98 1011.5
20260502011447 59 307 2.0 4.0 0.15 0.98 0.97 98 1011.5
20260502011347 59 6 2.0 4.0 0.15 0.98 0.97 98 1011.5
20260502011247 59 354 1.0 4.0 0.15 0.98 0.97 98 1011.5
20260502011147 59 334 1.0 4.0 0.15 0.98 0.97 98 1011.5
20260502011116 59 110 1.0 4.0 0.15 0.98 0.97 98 1011.5
20260502011047 59 12 1.0 4.0 0.15 0.98 0.97 98 1011.4
20260502010947 59 11 1.0 4.0 0.15 0.99 0.97 98 1011.3
20260502010847 59 25 1.0 4.0 0.15 0.99 0.97 98 1011.3
20260502010747 59 20 2.0 5.0 0.15 1.00 0.97 98 1011.2
20260502010647 59 44 2.0 8.0 0.15 1.00 0.97 98 1011.1
20260502010616 59 13 2.0 8.0 0.15 1.00 0.97 98 1011.1
20260502010547 59 321 2.0 8.0 0.15 1.00 0.97 98 1011.0
20260502010447 59 32 3.0 8.0 0.15 1.00 0.97 98 1010.9
20260502010347 59 338 3.0 8.0 0.15 1.00 0.97 98 1010.7
20260502010221 59 358 3.0 8.0 0.15 1.00 0.97 98 1010.7
20260502010120 59 6 4.0 8.0 0.15 1.00 0.97 98 1010.6
20260502010113 59 25 4.0 8.0 0.15 1.00 0.97 98 1010.6
20260502010021 59 353 4.0 8.0 0.15 1.00 0.97 98 1010.5
20260502005914 59 25 4.0 8.0 0.15 1.01 0.97 98 1010.4
20260502005814 59 99 5.0 8.0 0.15 1.01 0.97 98 1010.3
20260502005714 59 40 5.0 8.0 0.15 1.01 0.97 98 1010.2
20260502005613 59 30 5.0 8.0 0.15 1.02 0.97 98 1009.9
20260502005608 59 20 5.0 8.0 0.15 1.02 0.97 98 1009.9
20260502005508 59 47 5.0 8.0 0.15 1.03 0.97 98 1009.9
20260502005408 59 47 5.0 8.0 0.15 1.03 0.97 98 1009.8
20260502005308 59 35 5.0 8.0 0.15 1.03 0.97 98 1009.7
20260502005208 59 33 5.0 8.0 0.15 1.03 0.97 98 1009.6
20260502005114 59 54 5.0 8.0 0.15 1.03 0.97 98 1009.6
20260502005108 59 52 5.0 8.0 0.15 1.03 0.97 98 1009.6
20260502005005 59 35 4.0 8.0 0.15 1.03 0.97 98 1009.6
20260502004903 59 26 4.0 10.0 0.15 1.03 0.97 98 1009.6
20260502004803 59 36 4.0 10.0 0.15 1.03 0.97 98 1009.6
20260502004703 59 0 4.0 10.0 0.15 1.02 0.97 98 1009.8
20260502004613 59 49 4.0 10.0 0.15 1.02 0.97 98 1009.8
20260502004603 59 26 4.0 10.0 0.15 1.02 0.97 98 1009.8
20260502004503 59 38 4.0 10.0 0.15 1.02 0.97 98 1009.9
20260502004403 59 22 4.0 10.0 0.15 1.02 0.97 98 1009.9
20260502004303 59 15 4.0 10.0 0.14 1.02 0.96 98 1010.0
20260502004203 59 35 4.0 10.0 0.14 1.02 0.96 98 1010.0
20260502004113 59 36 4.0 10.0 0.13 1.02 0.96 98 1010.0
20260502004103 59 291 4.0 10.0 0.13 1.02 0.96 98 1010.0
20260502004003 59 15 4.0 10.0 0.13 1.01 0.95 98 1009.9
20260502003902 59 20 4.0 8.0 0.13 1.01 0.95 98 1009.9
20260502003803 59 54 3.0 8.0 0.13 1.02 0.95 98 1009.9
20260502003703 59 34 3.0 7.0 0.12 1.01 0.94 98 1010.0
20260502003614 59 44 3.0 7.0 0.11 1.00 0.93 98 1010.0
20260502003603 59 24 3.0 7.0 0.11 1.00 0.93 98 1010.0
20260502003503 59 37 3.0 7.0 0.11 1.00 0.93 98 1010.2
20260502003401 59 18 2.0 7.0 0.10 0.99 0.92 98 1010.4
20260502003329 59 359 2.0 7.0 0.08 0.99 0.90 98 1010.6
20260502003301 59 22 2.0 7.0 0.09 0.98 0.91 98 1010.5
20260502003213 59 6 2.0 7.0 0.08 0.98 0.90 98 1010.6
20260502003101 59 70 2.0 7.0 0.07 0.98 0.89 98 1010.7
20260502002957 60 22 2.0 7.0 0.06 0.96 0.88 98 1010.8
20260502002857 60 8 2.0 6.0 0.07 0.96 0.88 98 1010.8
20260502002757 60 304 2.0 6.0 0.06 0.96 0.87 98 1010.9
20260502002657 60 335 2.0 6.0 0.06 0.96 0.86 98 1010.8
20260502002607 60 60 2.0 6.0 0.06 0.96 0.86 98 1010.8
20260502002551 60 239 2.0 6.0 0.04 0.94 0.85 98 1010.7
20260502002451 60 301 2.0 6.0 0.04 0.94 0.85 98 1010.7
20260502002349 60 17 2.0 6.0 0.03 0.93 0.84 98 1010.5
20260502002246 60 45 2.0 5.0 0.03 0.93 0.83 98 1010.5
20260502002146 60 8 2.0 5.0 0.03 0.93 0.83 98 1010.5
20260502002103 60 2 2.0 5.0 0.03 0.93 0.83 98 1010.5
20260502002032 60 316 2.0 6.0 0.03 0.93 0.83 98 1010.5
20260502001903 60 0 2.0 6.0 0.03 0.93 0.83 98 1010.5
20260502001803 60 69 2.0 6.0 0.02 0.93 0.83 98 1010.4
20260502001703 60 281 2.0 6.0 0.02 0.92 0.83 98 1010.4
20260502001602 60 14 3.0 6.0 0.02 0.92 0.83 98 1010.1
20260502001457 60 285 3.0 8.0 0.02 0.92 0.83 98 1010.1
20260502001345 60 359 3.0 8.0 0.02 0.92 0.83 98 1010.1
20260502001239 60 277 3.0 8.0 0.02 0.92 0.82 98 1010.1
20260502001136 60 20 3.0 8.0 0.02 0.92 0.82 98 1009.9
20260502001056 60 20 3.0 8.0 0.02 0.92 0.82 98 1009.8
20260502001033 60 36 3.0 8.0 0.02 0.92 0.82 98 1009.8
20260502000933 60 346 3.0 8.0 0.02 0.92 0.82 98 1009.4
20260502000833 60 4 4.0 8.0 0.02 0.92 0.82 98 1009.4
20260502000733 60 62 4.0 8.0 0.02 0.92 0.82 98 1009.2
20260502000633 60 23 4.0 8.0 0.02 0.92 0.82 98 1008.9
20260502000555 60 14 4.0 8.0 0.02 0.92 0.82 98 1008.8
20260502000533 60 7 4.0 8.0 0.02 0.92 0.82 98 1008.8
20260502000433 60 23 4.0 8.0 0.02 0.92 0.82 98 1008.7
20260502000333 60 10 4.0 8.0 0.02 0.92 0.82 98 1008.7
20260502000233 60 8 4.0 8.0 0.02 0.92 0.82 98 1008.7
20260502000115 60 347 4.0 8.0 0.02 0.92 0.82 98 1008.7
20260502000056 60 330 4.0 8.0 0.02 0.92 0.82 98 1008.8
20260502000016 60 13 4.0 8.0 0.02 0.92 0.82 98 1008.8
20260501235916 60 10 4.0 8.0 0.02 0.92 0.82 98 1009.0
20260501235819 60 32 4.0 8.0 0.02 0.92 0.82 98 1009.3
20260501235814 60 345 4.0 8.0 0.02 0.92 0.82 98 1009.0
20260501235716 60 357 4.0 8.0 0.02 0.92 0.82 98 1009.0
20260501235701 60 1 4.0 8.0 0.02 0.92 0.82 98 1009.3
20260501235515 60 348 4.0 8.0 0.02 0.92 0.82 98 1009.3
20260501235415 60 5 4.0 8.0 0.03 0.92 0.82 98 1009.3
20260501235321 60 64 4.0 8.0 0.04 0.92 0.82 98 1009.6
20260501235305 60 10 4.0 8.0 0.03 0.92 0.82 98 1009.3
20260501235202 60 6 4.0 8.0 0.04 0.92 0.82 98 1009.3
20260501235039 60 22 4.0 8.0 0.04 0.92 0.82 98 1009.6
20260501234939 60 356 4.0 8.0 0.04 0.92 0.82 98 1009.6
20260501234839 60 3 4.0 8.0 0.04 0.92 0.82 98 1009.7
20260501234740 60 20 4.0 8.0 0.04 0.92 0.82 98 1009.8
20260501234640 60 39 3.0 8.0 0.04 0.92 0.82 98 1009.8
20260501234550 60 22 3.0 8.0 0.04 0.92 0.82 98 1009.7
20260501234540 60 2 3.0 7.0 0.04 0.92 0.82 98 1009.7
20260501234433 61 37 3.0 7.0 0.04 0.92 0.82 98 1009.7
20260501234333 61 354 3.0 6.0 0.04 0.92 0.82 98 1009.4
20260501234233 61 27 3.0 6.0 0.04 0.92 0.82 98 1009.4
20260501234133 61 5 3.0 6.0 0.04 0.92 0.82 98 1009.5
20260501234050 61 320 3.0 6.0 0.04 0.92 0.82 98 1009.4
20260501234034 61 24 3.0 6.0 0.04 0.92 0.82 98 1009.4
20260501233933 61 329 3.0 6.0 0.04 0.92 0.82 98 1009.4
20260501233815 61 306 3.0 6.0 0.04 0.92 0.82 98 1009.2
20260501233809 61 24 3.0 6.0 0.04 0.92 0.82 98 1009.4
20260501233709 61 11 3.0 6.0 0.04 0.92 0.82 98 1009.4
20260501233656 61 351 3.0 6.0 0.04 0.92 0.82 98 1009.3
20260501233527 61 2 3.0 7.0 0.04 0.91 0.81 98 1008.6
20260501233509 61 337 3.0 6.0 0.04 0.92 0.82 98 1009.2
20260501233404 61 34 3.0 6.0 0.04 0.92 0.82 98 1009.0
20260501233308 61 2 3.0 7.0 0.04 0.91 0.81 98 1008.6
20260501233304 61 356 3.0 6.0 0.04 0.92 0.82 98 1009.0
20260501233204 61 323 3.0 6.0 0.04 0.92 0.82 98 1008.9
20260501233156 61 352 3.0 7.0 0.04 0.92 0.82 98 1008.8
20260501233003 61 77 3.0 7.0 0.04 0.91 0.81 98 1008.6
20260501232903 61 14 3.0 7.0 0.04 0.91 0.81 98 1008.6
20260501232803 61 340 4.0 7.0 0.03 0.91 0.81 98 1008.5
20260501232703 61 353 3.0 7.0 0.03 0.91 0.81 98 1008.4
20260501232603 61 10 3.0 7.0 0.03 0.91 0.81 98 1008.3
20260501232550 61 343 3.0 7.0 0.03 0.91 0.81 98 1008.3
20260501232503 61 43 3.0 7.0 0.03 0.91 0.81 98 1008.3
20260501232357 61 12 3.0 9.0 0.03 0.91 0.81 98 1008.3
20260501232258 61 45 3.0 10.0 0.03 0.91 0.81 98 1008.3
20260501232158 61 344 3.0 10.0 0.03 0.91 0.81 98 1008.4
20260501232052 61 47 3.0 10.0 0.03 0.91 0.81 98 1008.5
20260501231952 61 44 4.0 10.0 0.03 0.91 0.81 98 1008.5
20260501231852 61 54 4.0 10.0 0.03 0.91 0.81 98 1008.5
20260501231742 61 24 4.0 10.0 0.03 0.91 0.81 98 1008.4
20260501231642 61 67 4.0 10.0 0.03 0.91 0.81 98 1008.4
20260501231543 61 21 4.0 10.0 0.03 0.90 0.80 98 1008.4
20260501231442 61 6 4.0 10.0 0.03 0.90 0.80 98 1008.4
20260501231342 61 0 4.0 10.0 0.03 0.90 0.80 98 1008.3
20260501231303 61 10 4.0 9.0 0.04 0.90 0.80 98 1008.1
20260501231234 61 21 4.0 9.0 0.03 0.90 0.80 98 1008.2
20260501231144 61 17 4.0 9.0 0.03 0.90 0.80 98 1008.1
20260501231033 61 43 4.0 9.0 0.04 0.90 0.80 98 1008.1
20260501230927 61 19 4.0 9.0 0.04 0.90 0.80 98 1008.1
20260501230822 61 43 3.0 8.0 0.04 0.91 0.80 98 1008.2
20260501230716 61 1 3.0 8.0 0.04 0.91 0.80 98 1008.4
20260501230616 61 35 3.0 8.0 0.04 0.91 0.80 98 1008.4
20260501230533 61 26 4.0 8.0 0.04 0.91 0.80 98 1008.4
20260501230516 61 351 4.0 8.0 0.04 0.91 0.80 98 1008.4
20260501230409 61 222 4.0 8.0 0.04 0.91 0.80 98 1008.4
20260501230309 61 298 4.0 9.0 0.04 0.91 0.80 98 1008.4
20260501230204 61 324 4.0 9.0 0.04 0.91 0.80 98 1008.5
20260501230104 61 335 4.0 9.0 0.04 0.91 0.80 98 1008.5
20260501230032 62 26 4.0 9.0 0.04 0.91 0.80 98 1008.5
20260501230004 62 42 4.0 9.0 0.04 0.91 0.80 98 1008.5
20260501225902 62 283 4.0 9.0 0.04 0.92 0.80 98 1008.6
20260501225759 62 1 4.0 9.0 0.04 0.92 0.80 98 1008.6
20260501225754 62 47 5.0 9.0 0.04 0.92 0.80 98 1008.6
20260501225657 62 7 5.0 9.0 0.04 0.92 0.80 98 1008.6
20260501225638 62 11 5.0 9.0 0.04 0.92 0.80 98 1008.6
20260501225459 62 27 5.0 9.0 0.04 0.92 0.80 98 1008.5
20260501225357 62 40 5.0 9.0 0.05 0.91 0.79 98 1008.6
20260501225257 62 242 4.0 9.0 0.04 0.91 0.79 98 1008.5
20260501225146 62 18 4.0 9.0 0.04 0.91 0.79 98 1008.5
20260501225046 62 50 4.0 9.0 0.04 0.91 0.78 98 1008.4
20260501225033 62 34 4.0 9.0 0.04 0.91 0.78 98 1008.4
20260501224946 62 58 4.0 9.0 0.04 0.90 0.78 98 1008.5
20260501224840 62 226 4.0 9.0 0.04 0.91 0.78 98 1008.5
20260501224752 62 230 4.0 9.0 0.04 0.91 0.78 98 1008.9
20260501224740 62 227 4.0 9.0 0.04 0.91 0.78 98 1008.5
20260501224644 62 226 4.0 9.0 0.04 0.91 0.78 98 1008.9
20260501224639 62 228 4.0 9.0 0.04 0.91 0.78 98 1008.9
20260501224440 62 227 4.0 8.0 0.04 0.91 0.78 98 1008.9
20260501224340 62 226 4.0 8.0 0.04 0.91 0.78 98 1008.9
20260501224240 62 227 4.0 8.0 0.04 0.91 0.78 98 1008.9
20260501224140 62 230 4.0 8.0 0.04 0.91 0.78 98 1008.9
20260501224033 62 228 4.0 8.0 0.04 0.91 0.78 98 1008.9
20260501223940 62 228 4.0 8.0 0.04 0.91 0.78 98 1008.9
20260501223841 62 226 4.0 8.0 0.04 0.91 0.78 98 1008.9
20260501223734 62 227 4.0 8.0 0.04 0.91 0.78 98 1009.0
20260501223634 62 227 4.0 9.0 0.04 0.91 0.78 98 1009.1
20260501223534 62 227 4.0 9.0 0.04 0.92 0.78 98 1009.1
20260501223434 62 228 4.0 9.0 0.04 0.92 0.78 98 1009.1
20260501223334 62 227 4.0 9.0 0.04 0.92 0.78 98 1009.1
20260501223234 62 226 4.0 9.0 0.04 0.92 0.78 98 1009.1
20260501223134 62 230 4.0 9.0 0.04 0.92 0.78 98 1009.2
20260501223034 62 229 4.0 9.0 0.04 0.92 0.78 98 1009.3
20260501222929 62 231 4.0 9.0 0.04 0.92 0.78 98 1009.4
20260501222829 62 339 4.0 9.0 0.04 0.92 0.78 98 1009.4
20260501222729 62 33 4.0 9.0 0.04 0.92 0.78 98 1009.4
20260501222629 62 22 4.0 8.0 0.04 0.92 0.78 98 1009.4
20260501222533 62 8 5.0 10.0 0.04 0.92 0.78 98 1009.3
20260501222528 62 29 5.0 10.0 0.04 0.92 0.78 98 1009.3
20260501222428 62 26 5.0 10.0 0.05 0.92 0.78 98 1009.3
20260501222322 62 10 5.0 10.0 0.05 0.92 0.78 98 1009.3
20260501222222 62 32 5.0 10.0 0.06 0.92 0.78 98 1009.1
20260501222122 62 39 5.0 10.0 0.07 0.92 0.78 98 1009.1
20260501222033 62 43 4.0 10.0 0.08 0.92 0.78 98 1009.0
20260501222023 62 42 4.0 10.0 0.08 0.92 0.78 98 1009.0
20260501221923 62 15 4.0 10.0 0.08 0.92 0.78 98 1009.0
20260501221823 62 34 4.0 10.0 0.09 0.92 0.78 98 1009.0
20260501221723 62 49 4.0 10.0 0.09 0.92 0.78 98 1009.4
20260501221623 62 38 3.0 10.0 0.10 0.92 0.78 98 1009.4
20260501221533 62 18 3.0 7.0 0.11 0.92 0.78 98 1009.6
20260501221523 62 32 3.0 7.0 0.11 0.92 0.78 98 1009.6
20260501221419 62 40 3.0 7.0 0.11 0.91 0.77 98 1009.8
20260501221320 62 25 3.0 7.0 0.11 0.91 0.77 98 1010.0
20260501221253 62 28 3.0 7.0 0.13 0.91 0.77 98 1010.0
20260501221216 62 36 3.0 7.0 0.12 0.91 0.77 98 1010.0
20260501221139 62 7 3.0 7.0 0.13 0.91 0.77 98 1010.0
20260501221010 62 43 3.0 7.0 0.13 0.91 0.77 98 1010.0
20260501220910 62 41 3.0 7.0 0.15 0.91 0.77 98 1010.0
20260501220810 62 59 3.0 7.0 0.16 0.91 0.77 98 1010.0
20260501220710 62 34 3.0 7.0 0.19 0.91 0.77 98 1010.0
20260501220610 62 46 4.0 8.0 0.19 0.91 0.77 98 1010.0
20260501220533 62 17 4.0 8.0 0.19 0.91 0.77 98 1010.0
20260501220510 62 7 4.0 8.0 0.19 0.91 0.77 98 1010.0
20260501220410 62 40 4.0 8.0 0.19 0.91 0.77 98 1010.0
20260501220310 62 38 4.0 8.0 0.19 0.91 0.77 98 1010.0
20260501220210 62 56 4.0 8.0 0.19 0.91 0.77 98 1009.9
20260501220111 62 64 4.0 8.0 0.19 0.91 0.77 98 1009.9
20260501220034 62 41 4.0 8.0 0.20 0.91 0.77 98 1009.8
20260501220010 62 34 4.0 8.0 0.20 0.91 0.77 98 1009.8
20260501215911 62 38 4.0 8.0 0.19 0.91 0.76 98 1009.8
20260501215805 62 22 4.0 8.0 0.19 0.91 0.76 98 1009.8
20260501215750 62 74 3.0 8.0 0.19 0.90 0.76 98 1009.6
20260501215705 62 47 4.0 8.0 0.19 0.91 0.76 98 1009.7
20260501215639 62 38 3.0 8.0 0.19 0.90 0.76 98 1009.6
20260501215502 62 32 3.0 8.0 0.19 0.89 0.75 98 1009.6
20260501215359 62 22 3.0 8.0 0.19 0.89 0.74 98 1009.4
20260501215258 62 28 3.0 8.0 0.20 0.89 0.74 98 1009.4
20260501215153 62 38 3.0 7.0 0.20 0.89 0.74 98 1009.4
20260501215053 62 45 3.0 7.0 0.20 0.89 0.74 98 1009.4
20260501215027 62 1 3.0 7.0 0.20 0.89 0.74 98 1009.4
20260501214952 62 19 3.0 7.0 0.20 0.89 0.74 98 1009.4
20260501214853 63 15 3.0 7.0 0.20 0.89 0.74 98 1009.4
20260501214747 63 26 3.0 8.0 0.20 0.89 0.74 98 1009.6
20260501214647 63 51 3.0 9.0 0.20 0.89 0.74 98 1009.7
20260501214540 63 35 3.0 9.0 0.20 0.89 0.74 98 1009.6
20260501214522 63 45 3.0 9.0 0.20 0.89 0.74 98 1009.6
20260501214433 63 23 4.0 9.0 0.20 0.89 0.74 98 1009.6
20260501214334 63 40 4.0 9.0 0.20 0.89 0.74 98 1009.5
20260501214233 63 50 4.0 9.0 0.21 0.89 0.74 98 1009.3
20260501214133 63 16 4.0 9.0 0.22 0.89 0.74 98 1009.1
20260501214035 63 28 4.0 9.0 0.22 0.89 0.74 98 1009.1
20260501214022 63 20 4.0 9.0 0.22 0.89 0.74 98 1009.1
20260501213935 63 43 4.0 9.0 0.23 0.89 0.74 98 1009.0
20260501213835 63 26 4.0 9.0 0.23 0.89 0.74 98 1008.9
20260501213735 63 67 4.0 9.0 0.23 0.89 0.74 98 1008.8
20260501213635 63 19 3.0 8.0 0.23 0.89 0.74 98 1008.8
20260501213535 63 38 3.0 8.0 0.23 0.89 0.74 98 1008.8
20260501213522 63 21 4.0 8.0 0.23 0.89 0.74 98 1008.8
20260501213435 63 23 3.0 7.0 0.23 0.89 0.74 98 1008.8
20260501213335 63 33 3.0 6.0 0.23 0.89 0.74 98 1008.8
20260501213235 63 40 3.0 7.0 0.22 0.88 0.74 98 1008.7
20260501213135 63 10 4.0 8.0 0.22 0.88 0.74 98 1008.7
20260501213035 63 21 4.0 9.0 0.22 0.88 0.74 98 1008.7
20260501213022 63 14 4.0 9.0 0.22 0.88 0.74 98 1008.7
20260501213009 63 43 5.0 10.0 0.22 0.88 0.74 98 1008.9
20260501212935 63 19 4.0 9.0 0.22 0.88 0.74 98 1008.8
20260501212849 63 21 4.0 9.0 0.22 0.88 0.74 98 1008.9
20260501212729 63 17 5.0 10.0 0.23 0.88 0.74 98 1009.0
20260501212633 63 15 5.0 10.0 0.22 0.88 0.74 98 1008.9
20260501212628 63 53 5.0 10.0 0.22 0.88 0.74 98 1008.9
20260501212429 63 18 6.0 10.0 0.22 0.87 0.73 98 1008.8
20260501212327 63 25 6.0 10.0 0.22 0.87 0.73 98 1008.6
20260501212227 63 46 6.0 10.0 0.21 0.86 0.72 98 1008.5
20260501212124 63 42 5.0 10.0 0.20 0.85 0.71 98 1008.4
20260501212024 63 41 5.0 10.0 0.19 0.84 0.70 98 1008.4
20260501211917 63 36 5.0 10.0 0.20 0.84 0.70 98 1008.4
20260501211817 63 44 5.0 10.0 0.19 0.83 0.69 98 1008.5
20260501211714 63 38 4.0 9.0 0.19 0.82 0.68 98 1008.6
20260501211611 63 59 4.0 8.0 0.18 0.81 0.67 98 1008.7
20260501211522 63 47 4.0 8.0 0.17 0.81 0.67 98 1008.7
20260501211511 63 39 4.0 8.0 0.17 0.81 0.67 98 1008.7
20260501211411 63 58 4.0 8.0 0.17 0.80 0.66 98 1008.8
20260501211312 63 39 4.0 8.0 0.17 0.80 0.66 98 1008.9
20260501211248 63 13 4.0 9.0 0.15 0.78 0.64 98 1009.1
20260501211211 63 19 4.0 8.0 0.16 0.80 0.65 98 1009.0
20260501211127 63 32 4.0 9.0 0.15 0.79 0.65 98 1009.1
20260501211011 63 4 4.0 9.0 0.15 0.78 0.64 98 1009.1
20260501210911 63 45 4.0 9.0 0.13 0.76 0.62 98 1009.2
20260501210812 63 40 4.0 9.0 0.12 0.75 0.61 98 1009.2
20260501210711 63 56 3.0 9.0 0.11 0.72 0.58 98 1008.9
20260501210611 63 6 3.0 9.0 0.11 0.72 0.58 98 1008.9
20260501210556 63 43 4.0 8.0 0.11 0.71 0.57 98 1009.1
20260501210523 63 10 4.0 9.0 0.13 0.72 0.58 98 1008.9
20260501210511 63 39 4.0 9.0 0.13 0.72 0.58 98 1008.9
20260501210442 63 19 4.0 9.0 0.12 0.72 0.58 98 1008.8
20260501210311 63 16 4.0 9.0 0.12 0.72 0.57 98 1008.8
20260501210229 63 42 4.0 8.0 0.11 0.71 0.57 98 1008.7
20260501210225 63 23 4.0 9.0 0.12 0.72 0.57 98 1009.1
20260501210219 63 17 3.0 8.0 0.12 0.72 0.57 98 1009.1
20260501210109 63 47 4.0 8.0 0.11 0.71 0.57 98 1009.1
20260501205912 63 359 4.0 8.0 0.11 0.71 0.57 98 1009.1
20260501205848 63 47 4.0 8.0 0.11 0.71 0.57 98 1009.1
20260501205713 63 39 4.0 8.0 0.11 0.71 0.57 98 1009.0
20260501205628 63 42 4.0 8.0 0.11 0.71 0.57 98 1008.8
20260501205512 63 37 4.0 8.0 0.11 0.71 0.57 98 1008.7
20260501205412 63 34 4.0 8.0 0.11 0.70 0.56 98 1008.5
20260501205312 63 17 4.0 8.0 0.10 0.70 0.56 98 1008.4
20260501205212 63 24 4.0 8.0 0.09 0.69 0.54 98 1008.3
20260501205105 63 13 4.0 8.0 0.09 0.69 0.54 98 1008.3
20260501205022 63 44 3.0 7.0 0.09 0.69 0.54 98 1008.4
20260501205006 63 46 3.0 7.0 0.09 0.69 0.54 98 1008.4
20260501204905 63 11 3.0 7.0 0.09 0.69 0.54 98 1008.4
20260501204806 63 41 3.0 7.0 0.09 0.69 0.54 98 1008.4
20260501204706 63 36 3.0 7.0 0.09 0.69 0.54 98 1008.4
20260501204606 63 27 3.0 7.0 0.09 0.68 0.54 98 1008.4
20260501204519 63 40 3.0 6.0 0.09 0.68 0.54 98 1008.2
20260501204506 63 20 3.0 6.0 0.09 0.68 0.54 98 1008.2
20260501204406 63 51 3.0 6.0 0.09 0.68 0.54 98 1008.2
20260501204304 63 25 3.0 6.0 0.09 0.68 0.54 98 1008.2
20260501204204 63 27 3.0 6.0 0.08 0.67 0.53 98 1008.1
20260501204104 63 335 3.0 9.0 0.07 0.66 0.52 98 1008.1
20260501204019 63 29 3.0 9.0 0.07 0.66 0.52 98 1008.1
20260501203954 63 56 3.0 9.0 0.07 0.66 0.52 98 1008.1
20260501203854 63 10 3.0 9.0 0.07 0.66 0.52 98 1008.2
20260501203754 63 14 3.0 9.0 0.07 0.66 0.52 98 1008.2
20260501203654 63 30 3.0 9.0 0.08 0.66 0.52 98 1008.2
20260501203554 63 38 3.0 9.0 0.09 0.66 0.52 98 1008.2
20260501203517 63 20 4.0 9.0 0.09 0.66 0.52 98 1008.2
20260501203454 63 29 4.0 9.0 0.09 0.66 0.52 98 1008.2
20260501203353 63 1 4.0 9.0 0.11 0.66 0.52 98 1008.1
20260501203254 63 40 4.0 9.0 0.12 0.66 0.52 98 1007.9
20260501203154 63 23 4.0 9.0 0.13 0.66 0.52 98 1007.9
20260501203048 63 19 4.0 10.0 0.13 0.66 0.52 98 1007.8
20260501203017 63 13 4.0 10.0 0.13 0.66 0.52 98 1007.8
20260501202946 63 339 5.0 10.0 0.15 0.66 0.52 98 1007.8
20260501202842 63 37 5.0 10.0 0.15 0.66 0.52 98 1007.8
20260501202745 63 43 5.0 10.0 0.15 0.65 0.51 98 1007.8
20260501202739 63 53 6.0 10.0 0.15 0.65 0.51 98 1007.5
20260501202642 63 27 6.0 10.0 0.15 0.65 0.51 98 1007.9
20260501202622 63 53 5.0 10.0 0.15 0.65 0.51 98 1007.5
20260501202442 63 24 5.0 10.0 0.15 0.65 0.51 98 1007.5
20260501202342 63 29 5.0 10.0 0.15 0.65 0.51 98 1007.5
20260501202242 63 61 6.0 10.0 0.15 0.65 0.51 98 1007.4
20260501202142 63 51 5.0 10.0 0.14 0.65 0.50 98 1007.4
20260501202042 63 33 5.0 10.0 0.14 0.65 0.50 98 1007.5
20260501202016 63 37 5.0 10.0 0.14 0.65 0.50 98 1007.5
20260501201942 63 50 5.0 9.0 0.14 0.64 0.50 98 1007.7
20260501201842 63 45 4.0 9.0 0.14 0.64 0.50 98 1007.9
20260501201742 63 15 4.0 9.0 0.13 0.64 0.50 98 1008.0
20260501201642 63 30 4.0 9.0 0.13 0.63 0.49 98 1008.2
20260501201542 63 30 4.0 9.0 0.14 0.63 0.49 98 1008.2
20260501201516 63 33 4.0 9.0 0.14 0.63 0.49 98 1008.2
20260501201442 63 24 4.0 9.0 0.15 0.63 0.49 98 1008.2
20260501201342 63 37 4.0 9.0 0.15 0.63 0.49 98 1008.1
20260501201242 63 316 4.0 8.0 0.15 0.63 0.49 98 1007.9
20260501201142 63 36 4.0 8.0 0.15 0.63 0.49 98 1007.8
20260501201042 63 35 4.0 8.0 0.15 0.63 0.49 98 1007.7
20260501201016 63 36 4.0 8.0 0.15 0.63 0.49 98 1007.7
20260501200942 63 228 4.0 8.0 0.15 0.63 0.49 98 1007.6
20260501200842 63 227 4.0 8.0 0.15 0.63 0.48 98 1007.4
20260501200742 63 227 4.0 8.0 0.14 0.62 0.48 98 1007.4
20260501200642 63 225 4.0 8.0 0.13 0.61 0.47 98 1007.2
20260501200542 63 229 4.0 8.0 0.12 0.60 0.46 98 1007.8
20260501200517 63 227 4.0 8.0 0.12 0.60 0.46 98 1007.8
20260501200442 63 226 4.0 8.0 0.12 0.60 0.46 98 1007.8
20260501200342 63 226 3.0 8.0 0.12 0.60 0.46 98 1007.8
20260501200242 63 226 3.0 8.0 0.12 0.60 0.46 98 1007.8
20260501200137 63 226 2.0 7.0 0.12 0.60 0.46 98 1008.3
20260501200037 63 226 2.0 6.0 0.12 0.60 0.46 98 1008.5
20260501200009 63 228 2.0 6.0 0.12 0.60 0.46 98 1008.5
20260501195936 63 226 2.0 6.0 0.12 0.60 0.46 98 1008.8
20260501195836 63 226 2.0 6.0 0.12 0.60 0.46 98 1008.8
20260501195736 63 227 2.0 6.0 0.12 0.60 0.46 98 1008.7
20260501195621 63 226 3.0 8.0 0.12 0.60 0.46 98 1008.7
20260501195508 63 227 3.0 8.0 0.12 0.60 0.46 98 1008.3
20260501195413 63 227 3.0 8.0 0.12 0.60 0.46 98 1008.3
20260501195313 63 234 3.0 8.0 0.12 0.60 0.46 98 1008.3
20260501195212 63 229 4.0 8.0 0.12 0.60 0.46 98 1008.0
20260501195113 63 239 4.0 8.0 0.12 0.60 0.46 98 1007.9
20260501195013 63 230 4.0 10.0 0.12 0.60 0.46 98 1007.8
20260501195004 63 227 4.0 10.0 0.12 0.60 0.46 98 1007.6
20260501194913 63 227 4.0 10.0 0.12 0.60 0.46 98 1007.6
20260501194812 63 233 4.0 10.0 0.12 0.60 0.46 98 1007.6
20260501194713 63 227 4.0 10.0 0.12 0.60 0.46 98 1007.6
20260501194613 63 240 4.0 10.0 0.11 0.59 0.45 98 1007.7
20260501194513 63 39 5.0 10.0 0.11 0.59 0.45 98 1007.6
20260501194451 63 228 5.0 12.0 0.11 0.59 0.45 98 1007.6
20260501194406 63 227 5.0 12.0 0.11 0.59 0.45 98 1007.6
20260501194306 63 241 5.0 16.0 0.11 0.59 0.44 98 1007.4
20260501194215 64 99 4.0 16.0 0.11 0.59 0.44 98 1007.1
20260501194206 63 16 5.0 16.0 0.11 0.59 0.44 98 1007.3
20260501194106 64 34 5.0 16.0 0.11 0.59 0.44 98 1007.2
20260501194056 64 32 4.0 16.0 0.11 0.59 0.44 98 1007.1
20260501193906 64 38 4.0 16.0 0.11 0.59 0.44 98 1007.1
20260501193807 64 41 5.0 16.0 0.11 0.59 0.44 98 1007.1
20260501193706 64 53 5.0 16.0 0.10 0.58 0.44 98 1007.2
20260501193606 64 45 4.0 16.0 0.09 0.57 0.43 98 1007.2
20260501193506 64 229 4.0 16.0 0.08 0.56 0.43 98 1007.4
20260501193450 64 42 4.0 16.0 0.08 0.56 0.42 98 1007.7
20260501193406 64 27 3.0 16.0 0.07 0.55 0.41 98 1007.9
20260501193301 64 224 2.0 6.0 0.06 0.54 0.39 98 1008.1
20260501193201 64 36 2.0 6.0 0.04 0.52 0.38 98 1008.5
20260501193058 64 30 2.0 6.0 0.04 0.52 0.38 98 1008.5
20260501192950 64 72 1.0 4.0 0.03 0.51 0.37 98 1008.6
20260501192940 64 35 1.0 4.0 0.03 0.51 0.37 98 1008.6
20260501192837 64 48 1.0 4.0 0.02 0.50 0.36 98 1008.7
20260501192737 64 319 1.0 4.0 0.02 0.50 0.36 98 1008.9
20260501192637 64 0 1.0 5.0 0.02 0.50 0.36 98 1008.9
20260501192536 64 285 2.0 5.0 0.02 0.50 0.36 98 1008.9
20260501192437 64 129 2.0 5.0 0.02 0.50 0.36 98 1009.0
20260501192337 64 138 2.0 5.0 0.02 0.50 0.36 98 1008.9
20260501192229 64 309 2.0 5.0 0.02 0.50 0.36 98 1008.9
20260501192122 64 302 2.0 5.0 0.02 0.50 0.36 98 1008.7
20260501192021 64 153 3.0 5.0 0.02 0.50 0.36 98 1008.5
20260501191950 64 153 3.0 5.0 0.02 0.50 0.36 98 1008.0
20260501191922 64 40 3.0 5.0 0.02 0.50 0.36 98 1008.0
20260501191809 64 54 3.0 5.0 0.02 0.50 0.36 98 1008.0
20260501191705 64 47 3.0 5.0 0.02 0.50 0.36 98 1007.9
20260501191606 64 41 3.0 5.0 0.02 0.50 0.35 98 1007.9
20260501191454 64 7 3.0 8.0 0.01 0.49 0.35 98 1008.1
20260501191439 64 14 3.0 8.0 0.01 0.49 0.35 98 1008.1
20260501191352 64 40 3.0 8.0 0.01 0.49 0.35 98 1008.1
20260501191252 64 52 3.0 8.0 0.00 0.48 0.34 98 1008.2
20260501191203 64 62 3.0 8.0 0.00 0.48 0.34 98 1008.4
20260501191152 64 28 3.0 8.0 0.00 0.48 0.34 98 1008.2
20260501191049 64 13 3.0 8.0 0.00 0.48 0.34 98 1008.3
20260501191043 64 72 3.0 8.0 0.00 0.48 0.34 98 1008.4
20260501190843 64 66 3.0 8.0 0.00 0.48 0.34 98 1008.4
20260501190743 64 264 4.0 8.0 0.00 0.48 0.34 98 1008.3
20260501190643 64 65 4.0 8.0 0.00 0.48 0.34 98 1008.3
20260501190543 64 56 4.0 8.0 0.00 0.48 0.34 98 1008.2
20260501190437 64 57 4.0 8.0 0.00 0.48 0.34 98 1008.1
20260501190337 64 278 4.0 8.0 0.00 0.48 0.34 98 1008.2
20260501190232 64 49 4.0 8.0 0.00 0.48 0.34 98 1008.2
20260501190130 64 45 4.0 9.0 0.00 0.48 0.34 98 1008.2
20260501190032 64 54 4.0 9.0 0.00 0.48 0.34 98 1008.2
20260501185936 64 32 4.0 9.0 0.00 0.48 0.34 98 1008.2
20260501185930 64 3 4.0 9.0 0.00 0.48 0.34 98 1008.2
20260501185830 64 51 4.0 9.0 0.00 0.48 0.34 98 1008.1
20260501185731 64 18 4.0 9.0 0.00 0.48 0.34 98 1008.2
20260501185631 64 46 4.0 9.0 0.00 0.48 0.34 98 1008.2
20260501185531 64 58 4.0 9.0 0.00 0.48 0.34 98 1008.1
20260501185435 64 37 4.0 9.0 0.00 0.48 0.34 98 1008.1
20260501185431 64 48 4.0 9.0 0.00 0.48 0.34 98 1008.1
20260501185331 64 25 4.0 9.0 0.00 0.48 0.34 98 1008.1
20260501185231 64 20 3.0 9.0 0.00 0.48 0.34 98 1008.1
20260501185125 64 40 3.0 9.0 0.00 0.48 0.34 98 1008.0
20260501185022 64 51 2.0 4.0 0.00 0.48 0.34 98 1008.1
20260501184934 64 42 2.0 4.0 0.00 0.48 0.34 98 1008.2
20260501184922 64 13 2.0 4.0 0.00 0.48 0.34 98 1008.2
20260501184822 64 37 2.0 4.0 0.00 0.48 0.34 98 1008.2
20260501184722 64 58 2.0 4.0 0.00 0.48 0.34 98 1008.4
20260501184618 64 16 2.0 4.0 0.00 0.48 0.34 98 1008.4
20260501184514 64 26 2.0 4.0 0.00 0.48 0.34 98 1008.4
20260501184429 64 33 2.0 4.0 0.00 0.48 0.34 98 1008.5
20260501184407 64 343 2.0 4.0 0.00 0.48 0.34 98 1008.5
20260501184307 64 27 2.0 3.0 0.00 0.48 0.34 98 1008.5
20260501184205 64 23 2.0 3.0 0.00 0.48 0.34 98 1008.6
20260501184105 64 332 2.0 4.0 0.00 0.48 0.34 98 1008.6
20260501184005 64 359 2.0 4.0 0.00 0.48 0.34 98 1008.6
20260501183922 64 33 1.0 4.0 0.00 0.48 0.34 98 1008.6
20260501183859 64 227 1.0 4.0 0.00 0.48 0.34 98 1008.6
20260501183751 64 279 1.0 4.0 0.00 0.48 0.34 98 1008.6
20260501183653 64 270 1.0 4.0 0.00 0.48 0.34 98 1008.6
20260501183552 64 101 1.0 4.0 0.00 0.48 0.34 98 1008.6
20260501183453 64 53 1.0 5.0 0.00 0.48 0.34 98 1008.6
20260501183407 64 349 1.0 5.0 0.00 0.48 0.34 98 1008.6
20260501183353 64 352 1.0 5.0 0.00 0.48 0.34 98 1008.6
20260501183253 64 7 1.0 5.0 0.00 0.48 0.34 98 1008.6
20260501183152 64 256 1.0 5.0 0.00 0.48 0.34 98 1008.6
20260501183052 64 57 1.0 5.0 0.00 0.48 0.34 98 1008.6
20260501182949 64 123 1.0 5.0 0.00 0.48 0.34 98 1008.6
20260501182906 64 323 2.0 5.0 0.00 0.48 0.34 98 1008.6
20260501182843 64 236 2.0 5.0 0.00 0.48 0.34 98 1008.6
20260501182744 64 192 2.0 5.0 0.00 0.48 0.34 98 1008.6
20260501182643 64 178 2.0 6.0 0.00 0.48 0.34 98 1008.6
20260501182624 64 31 2.0 8.0 0.00 0.48 0.34 98 1008.6
20260501182543 64 242 2.0 6.0 0.00 0.48 0.34 98 1008.6
20260501182511 64 36 2.0 8.0 0.00 0.48 0.34 98 1008.6
20260501182337 64 271 2.0 8.0 0.00 0.48 0.34 98 1008.5
20260501182225 64 278 2.0 8.0 0.00 0.48 0.34 98 1008.6
20260501182125 64 69 3.0 8.0 0.00 0.48 0.34 98 1008.6
20260501182025 64 38 3.0 9.0 0.00 0.48 0.34 98 1008.5
20260501181925 64 239 4.0 9.0 0.00 0.48 0.34 98 1008.6
20260501181906 64 344 4.0 9.0 0.00 0.48 0.34 98 1008.6
20260501181819 64 238 4.0 9.0 0.00 0.48 0.34 98 1008.5
20260501181719 64 21 4.0 9.0 0.00 0.48 0.34 98 1008.5
20260501181620 64 49 4.0 9.0 0.00 0.48 0.34 98 1008.5
20260501181519 64 185 4.0 9.0 0.00 0.48 0.34 98 1008.6
20260501181419 64 39 4.0 9.0 0.00 0.48 0.34 98 1008.6
20260501181406 64 14 4.0 9.0 0.00 0.48 0.34 98 1008.6
20260501181320 64 34 4.0 9.0 0.00 0.48 0.34 98 1008.6
20260501181214 64 35 4.0 9.0 0.00 0.48 0.34 98 1008.6
20260501181107 64 18 4.0 9.0 0.00 0.48 0.34 98 1008.6
20260501181008 64 48 4.0 9.0 0.00 0.48 0.34 98 1008.9
20260501180908 64 35 3.0 9.0 0.00 0.48 0.34 98 1008.9
20260501180808 64 41 3.0 7.0 0.00 0.48 0.34 98 1008.9
20260501180708 64 34 2.0 7.0 0.00 0.48 0.34 98 1009.3
20260501180608 64 10 2.0 7.0 0.00 0.48 0.34 98 1009.3
20260501180507 64 27 2.0 7.0 0.00 0.48 0.34 98 1009.5
20260501180410 64 312 2.0 4.0 0.00 0.48 0.34 98 1009.5
20260501180404 64 312 2.0 4.0 0.00 0.48 0.34 98 1009.5
20260501180308 64 271 2.0 4.0 0.00 0.48 0.34 98 1009.5
20260501180207 64 272 2.0 4.0 0.00 0.48 0.34 98 1009.5
20260501180106 64 238 2.0 5.0 0.01 0.48 0.34 98 1009.4
20260501180008 64 82 2.0 7.0 0.01 0.48 0.34 98 1009.4
20260501175907 64 66 2.0 7.0 0.01 0.48 0.34 98 1009.4
20260501175807 64 265 2.0 7.0 0.02 0.48 0.34 98 1009.1
20260501175800 64 341 4.0 11.0 0.20 0.48 0.34 98 1008.6
20260501175653 64 276 2.0 8.0 0.02 0.48 0.34 98 1009.1
20260501175645 64 126 3.0 9.0 0.02 0.48 0.34 98 1009.1
20260501175444 64 313 3.0 9.0 0.03 0.48 0.34 98 1009.1
20260501175423 64 266 4.0 9.0 0.04 0.48 0.34 98 1009.0
20260501175238 64 276 4.0 9.0 0.07 0.48 0.34 98 1008.9
20260501175202 64 87 4.0 9.0 0.11 0.48 0.34 98 1008.9
20260501175032 64 18 4.0 9.0 0.16 0.48 0.34 98 1008.8
20260501174942 64 53 4.0 9.0 0.18 0.48 0.34 98 1008.8
20260501174825 64 254 4.0 11.0 0.20 0.48 0.34 98 1008.6
20260501174725 64 31 4.0 11.0 0.20 0.48 0.34 98 1008.6
20260501174620 64 266 4.0 11.0 0.20 0.48 0.34 98 1008.6
20260501174520 64 59 4.0 11.0 0.21 0.48 0.34 98 1008.7
20260501174414 64 46 4.0 11.0 0.22 0.48 0.34 98 1008.7
20260501174336 64 30 4.0 11.0 0.22 0.48 0.34 98 1008.7
20260501174314 64 48 4.0 11.0 0.22 0.48 0.34 98 1008.7
20260501174214 64 28 4.0 11.0 0.22 0.48 0.34 98 1008.9
20260501174111 64 44 4.0 11.0 0.23 0.48 0.34 98 1008.9
20260501174011 64 12 4.0 11.0 0.23 0.48 0.34 98 1008.9
20260501173907 64 19 4.0 9.0 0.24 0.48 0.34 98 1009.1
20260501173837 64 46 4.0 9.0 0.25 0.48 0.34 98 1009.1
20260501173802 64 52 4.0 9.0 0.26 0.48 0.34 98 1009.1
20260501173658 64 75 4.0 9.0 0.26 0.48 0.34 98 1009.1
20260501173544 64 46 4.0 9.0 0.26 0.48 0.34 98 1009.0
20260501173444 64 47 3.0 9.0 0.26 0.48 0.34 98 1009.1
20260501173343 64 24 4.0 9.0 0.26 0.48 0.34 98 1009.1
20260501173330 64 46 4.0 9.0 0.26 0.48 0.34 98 1009.1
20260501173244 64 324 4.0 9.0 0.26 0.48 0.34 98 1009.1
20260501173143 64 354 4.0 9.0 0.26 0.48 0.34 98 1009.1
20260501173043 64 22 4.0 9.0 0.26 0.48 0.34 98 1009.1
20260501172938 64 306 4.0 9.0 0.26 0.48 0.34 98 1009.2
20260501172837 64 359 4.0 9.0 0.26 0.48 0.34 98 1009.2
20260501172825 64 354 4.0 9.0 0.26 0.48 0.34 98 1009.2
20260501172731 64 8 4.0 9.0 0.26 0.48 0.34 98 1009.2
20260501172632 64 20 4.0 9.0 0.26 0.48 0.34 98 1009.2
20260501172532 64 45 4.0 9.0 0.26 0.48 0.34 98 1009.2
20260501172426 64 37 4.0 9.0 0.26 0.48 0.34 98 1009.2
20260501172326 64 21 4.0 9.0 0.26 0.48 0.34 98 1009.2
20260501172226 64 10 5.0 9.0 0.26 0.48 0.34 98 1009.2
20260501172126 64 7 5.0 9.0 0.26 0.48 0.34 98 1009.2
20260501172026 64 43 5.0 9.0 0.26 0.48 0.34 98 1009.2
20260501171927 64 29 5.0 9.0 0.26 0.48 0.34 98 1009.1
20260501171826 64 1 5.0 9.0 0.26 0.48 0.34 98 1009.2
20260501171726 64 30 5.0 9.0 0.26 0.48 0.34 98 1009.4
20260501171626 64 33 5.0 9.0 0.26 0.48 0.34 98 1009.4
20260501171526 63 37 6.0 9.0 0.26 0.48 0.34 98 1009.4
20260501171424 63 45 6.0 9.0 0.26 0.48 0.34 98 1009.5
20260501171325 63 32 6.0 9.0 0.26 0.48 0.34 98 1009.5
20260501171320 63 39 6.0 9.0 0.26 0.48 0.34 98 1009.5
20260501171220 63 39 6.0 9.0 0.26 0.48 0.34 98 1009.5
20260501171114 63 25 6.0 9.0 0.26 0.48 0.34 98 1009.5
20260501171014 63 38 5.0 9.0 0.26 0.48 0.34 98 1009.4
20260501170914 63 25 5.0 9.0 0.26 0.48 0.34 98 1009.2
20260501170825 63 27 5.0 9.0 0.26 0.48 0.34 98 1009.2
20260501170814 63 10 5.0 9.0 0.26 0.48 0.34 98 1009.2
20260501170714 63 34 5.0 9.0 0.26 0.48 0.34 98 1009.2
20260501170611 63 22 5.0 9.0 0.26 0.48 0.33 98 1009.2
20260501170509 63 43 5.0 8.0 0.26 0.48 0.33 98 1009.2
20260501170408 63 50 5.0 8.0 0.26 0.48 0.33 98 1009.3
20260501170325 63 45 5.0 8.0 0.26 0.48 0.33 98 1009.3
20260501170308 63 49 5.0 8.0 0.26 0.48 0.33 98 1009.3
20260501170209 63 37 4.0 8.0 0.26 0.48 0.33 98 1009.3
20260501170107 63 43 4.0 8.0 0.26 0.47 0.33 98 1009.6
20260501170008 63 31 4.0 8.0 0.26 0.47 0.33 98 1009.7
20260501165907 63 29 4.0 8.0 0.25 0.47 0.33 98 1009.7
20260501165825 63 44 4.0 8.0 0.25 0.46 0.32 98 1009.7
20260501165807 63 45 4.0 8.0 0.25 0.46 0.32 98 1009.8
20260501165707 63 32 4.0 6.0 0.24 0.46 0.32 98 1009.8
20260501165607 63 17 4.0 6.0 0.24 0.46 0.31 98 1009.9
20260501165507 63 1 3.0 6.0 0.24 0.45 0.31 98 1009.9
20260501165403 63 37 3.0 6.0 0.22 0.44 0.30 98 1009.9
20260501165322 63 40 3.0 6.0 0.22 0.44 0.30 98 1009.9
20260501165306 63 49 3.0 6.0 0.19 0.41 0.26 98 1010.0
20260501165203 63 43 3.0 6.0 0.15 0.37 0.23 98 1010.3
20260501165103 63 39 3.0 6.0 0.11 0.32 0.18 98 1010.8
20260501165043 64 20 2.0 5.0 0.07 0.28 0.14 98 1011.5
20260501165003 63 43 2.0 6.0 0.08 0.30 0.16 98 1011.2
20260501164927 64 37 2.0 5.0 0.07 0.28 0.14 98 1011.5
20260501164754 64 261 2.0 5.0 0.07 0.28 0.14 98 1011.5
20260501164647 64 39 1.0 3.0 0.06 0.28 0.13 98 1011.6
20260501164542 64 112 1.0 3.0 0.06 0.27 0.13 98 1011.6
20260501164443 64 58 1.0 3.0 0.05 0.26 0.12 98 1011.7
20260501164339 64 318 1.0 3.0 0.04 0.26 0.12 98 1011.5
20260501164322 64 90 1.0 3.0 0.04 0.26 0.12 98 1011.5
20260501164239 64 207 1.0 3.0 0.04 0.26 0.11 98 1011.3
20260501164138 64 289 2.0 4.0 0.04 0.25 0.11 98 1010.9
20260501164039 64 350 2.0 4.0 0.04 0.25 0.11 98 1010.9
20260501163939 64 331 2.0 4.0 0.02 0.24 0.09 98 1010.8
20260501163839 64 320 2.0 4.0 0.01 0.23 0.09 98 1010.7
20260501163821 64 329 2.0 4.0 0.01 0.23 0.09 98 1010.7
20260501163739 64 329 2.0 4.0 0.00 0.22 0.08 98 1010.5
20260501163624 64 315 2.0 6.0 0.00 0.22 0.07 98 1010.4
20260501163524 64 285 2.0 8.0 0.00 0.22 0.07 98 1010.2
20260501163424 64 9 3.0 8.0 0.00 0.22 0.07 98 1009.9